Wetterdaten: Freitag, 19.03.2010
Datum Zeit Temp. Innen Temp. Aussen UV X Diff Temp. Feuchte Inne Feuchte Auss Sonnenschein Luftdruck Regen ab 0,1 Wind Sonnenschein Windben
19.03.2010 00:02 16,6 C 10,8 C 0,0 UV-I 0,0 C 45 % 61 % 0 % 1016,1 hPa 0,0 l/m 2,8 km/h (1 Bft) 0 min 3,8 km/h (1 Bft)
19.03.2010 00:04 16,5 C 10,8 C 0,0 UV-I 0,0 C 45 % 61 % 0 % 1016,1 hPa 0,0 l/m 2,8 km/h (1 Bft) 0 min 3,8 km/h (1 Bft)
19.03.2010 00:06 16,6 C 10,8 C 0,0 UV-I 0,0 C 45 % 62 % 0 % 1016,1 hPa 0,0 l/m 3,6 km/h (1 Bft) 0 min 4,8 km/h (1 Bft)
19.03.2010 00:08 16,5 C 10,7 C 0,0 UV-I 0,0 C 45 % 62 % 0 % 1016,1 hPa 0,0 l/m 3,6 km/h (1 Bft) 0 min 0,0 km/h (0 Bft)
19.03.2010 00:10 16,5 C 10,7 C 0,0 UV-I 0,0 C 45 % 62 % 0 % 1016,1 hPa 0,0 l/m 4,0 km/h (1 Bft) 0 min 4,8 km/h (1 Bft)
19.03.2010 00:12 16,5 C 10,6 C 0,0 UV-I 0,0 C 45 % 62 % 0 % 1015,8 hPa 0,0 l/m 4,0 km/h (1 Bft) 0 min 7,5 km/h (2 Bft)
19.03.2010 00:14 16,5 C 10,6 C 0,0 UV-I 0,0 C 45 % 62 % 0 % 1015,8 hPa 0,0 l/m 3,2 km/h (1 Bft) 0 min 0,0 km/h (0 Bft)
19.03.2010 00:16 16,5 C 10,7 C 0,0 UV-I 0,0 C 45 % 62 % 0 % 1015,8 hPa 0,0 l/m 2,8 km/h (1 Bft) 0 min 4,3 km/h (1 Bft)
19.03.2010 00:18 16,5 C 10,6 C 0,0 UV-I 0,0 C 45 % 62 % 0 % 1015,8 hPa 0,0 l/m 2,8 km/h (1 Bft) 0 min 6,5 km/h (2 Bft)
19.03.2010 00:20 16,5 C 10,5 C 0,0 UV-I 0,0 C 45 % 62 % 0 % 1015,8 hPa 0,0 l/m 3,2 km/h (1 Bft) 0 min 7,5 km/h (2 Bft)
19.03.2010 00:22 16,5 C 10,5 C 0,0 UV-I 0,0 C 45 % 62 % 0 % 1015,8 hPa 0,0 l/m 3,2 km/h (1 Bft) 0 min 3,4 km/h (1 Bft)
19.03.2010 00:24 16,5 C 10,4 C 0,0 UV-I 0,0 C 45 % 62 % 0 % 1015,8 hPa 0,0 l/m 4,0 km/h (1 Bft) 0 min 5,1 km/h (1 Bft)
19.03.2010 00:26 16,5 C 10,4 C 0,0 UV-I 0,0 C 45 % 62 % 0 % 1015,8 hPa 0,0 l/m 5,2 km/h (1 Bft) 0 min 3,6 km/h (1 Bft)
19.03.2010 00:28 16,5 C 10,4 C 0,0 UV-I 0,0 C 45 % 62 % 0 % 1015,8 hPa 0,0 l/m 4,4 km/h (1 Bft) 0 min 2,4 km/h (1 Bft)
19.03.2010 00:30 16,5 C 10,4 C 0,0 UV-I 0,0 C 45 % 62 % 0 % 1015,8 hPa 0,0 l/m 4,8 km/h (1 Bft) 0 min 8,2 km/h (2 Bft)
19.03.2010 00:32 16,5 C 10,4 C 0,0 UV-I 0,0 C 45 % 62 % 0 % 1015,7 hPa 0,0 l/m 5,2 km/h (1 Bft) 0 min 2,9 km/h (1 Bft)
19.03.2010 00:34 16,5 C 10,5 C 0,0 UV-I 0,0 C 45 % 62 % 0 % 1015,7 hPa 0,0 l/m 4,8 km/h (1 Bft) 0 min 5,8 km/h (2 Bft)
19.03.2010 00:36 16,5 C 10,4 C 0,0 UV-I 0,0 C 45 % 62 % 0 % 1015,7 hPa 0,0 l/m 4,4 km/h (1 Bft) 0 min 3,4 km/h (1 Bft)
19.03.2010 00:40 16,4 C 10,4 C 0,0 UV-I 0,0 C 45 % 63 % 0 % 1015,7 hPa 0,0 l/m 4,4 km/h (1 Bft) 0 min 5,1 km/h (1 Bft)
19.03.2010 00:42 16,4 C 10,3 C 0,0 UV-I 0,0 C 45 % 63 % 0 % 1015,7 hPa 0,0 l/m 4,0 km/h (1 Bft) 0 min 0,0 km/h (0 Bft)
19.03.2010 00:44 16,4 C 10,3 C 0,0 UV-I 0,0 C 45 % 63 % 0 % 1015,7 hPa 0,0 l/m 3,2 km/h (1 Bft) 0 min 2,4 km/h (1 Bft)
19.03.2010 00:46 16,5 C 10,2 C 0,0 UV-I 0,0 C 45 % 63 % 0 % 1015,7 hPa 0,0 l/m 3,2 km/h (1 Bft) 0 min 4,3 km/h (1 Bft)
19.03.2010 00:48 16,4 C 10,2 C 0,0 UV-I 0,0 C 45 % 63 % 0 % 1015,7 hPa 0,0 l/m 2,4 km/h (1 Bft) 0 min 0,0 km/h (0 Bft)
19.03.2010 00:50 16,4 C 10,2 C 0,0 UV-I 0,0 C 45 % 63 % 0 % 1015,7 hPa 0,0 l/m 1,6 km/h (1 Bft) 0 min 0,0 km/h (0 Bft)
19.03.2010 00:52 16,4 C 10,3 C 0,0 UV-I 0,0 C 45 % 63 % 0 % 1015,5 hPa 0,0 l/m 1,2 km/h (1 Bft) 0 min 0,0 km/h (0 Bft)
19.03.2010 00:54 16,4 C 10,3 C 0,0 UV-I 0,0 C 45 % 63 % 0 % 1015,5 hPa 0,0 l/m 0,8 km/h (0 Bft) 0 min 0,0 km/h (0 Bft)
19.03.2010 00:56 16,4 C 10,2 C 0,0 UV-I 0,0 C 45 % 64 % 0 % 1015,5 hPa 0,0 l/m 0,8 km/h (0 Bft) 0 min 0,0 km/h (0 Bft)
19.03.2010 00:58 16,4 C 10,2 C 0,0 UV-I 0,0 C 45 % 64 % 0 % 1015,5 hPa 0,0 l/m 0,8 km/h (0 Bft) 0 min 0,0 km/h (0 Bft)
19.03.2010 01:00 16,4 C 10,2 C 0,0 UV-I 0,0 C 45 % 64 % 0 % 1015,5 hPa 0,0 l/m 0,8 km/h (0 Bft) 0 min 0,0 km/h (0 Bft)
19.03.2010 01:02 16,4 C 10,1 C 0,0 UV-I 0,0 C 45 % 64 % 0 % 1015,5 hPa 0,0 l/m 0,4 km/h (0 Bft) 0 min 0,0 km/h (0 Bft)
19.03.2010 01:04 16,4 C 10,1 C 0,0 UV-I 0,0 C 45 % 64 % 0 % 1015,5 hPa 0,0 l/m 0,4 km/h (0 Bft) 0 min 0,0 km/h (0 Bft)
19.03.2010 01:06 16,4 C 10,1 C 0,0 UV-I 0,0 C 45 % 64 % 0 % 1015,5 hPa 0,0 l/m 0,0 km/h (0 Bft) 0 min 0,0 km/h (0 Bft)
19.03.2010 01:08 16,4 C 10,1 C 0,0 UV-I 0,0 C 45 % 64 % 0 % 1015,5 hPa 0,0 l/m 0,0 km/h (0 Bft) 0 min 0,0 km/h (0 Bft)
19.03.2010 01:10 16,4 C 10,0 C 0,0 UV-I 0,0 C 45 % 64 % 0 % 1015,5 hPa 0,0 l/m 0,0 km/h (0 Bft) 0 min 0,0 km/h (0 Bft)
19.03.2010 01:12 16,4 C 10,0 C 0,0 UV-I 0,0 C 45 % 64 % 0 % 1015,7 hPa 0,0 l/m 0,0 km/h (0 Bft) 0 min 0,0 km/h (0 Bft)
19.03.2010 01:14 16,4 C 10,0 C 0,0 UV-I 0,0 C 45 % 64 % 0 % 1015,7 hPa 0,0 l/m 0,0 km/h (0 Bft) 0 min 0,0 km/h (0 Bft)
19.03.2010 01:16 16,4 C 10,0 C 0,0 UV-I 0,0 C 45 % 64 % 0 % 1015,7 hPa 0,0 l/m 0,0 km/h (0 Bft) 0 min 0,0 km/h (0 Bft)
19.03.2010 01:18 16,4 C 10,1 C 0,0 UV-I 0,0 C 46 % 64 % 0 % 1015,7 hPa 0,0 l/m 0,0 km/h (0 Bft) 0 min 0,0 km/h (0 Bft)
19.03.2010 01:20 16,4 C 10,0 C 0,0 UV-I 0,0 C 46 % 64 % 0 % 1015,7 hPa 0,0 l/m 0,0 km/h (0 Bft) 0 min 0,0 km/h (0 Bft)
19.03.2010 01:22 16,4 C 10,0 C 0,0 UV-I 0,0 C 46 % 65 % 0 % 1015,7 hPa 0,0 l/m 0,0 km/h (0 Bft) 0 min 0,0 km/h (0 Bft)
19.03.2010 01:24 16,4 C 10,0 C 0,0 UV-I 0,0 C 45 % 65 % 0 % 1015,7 hPa 0,0 l/m 0,0 km/h (0 Bft) 0 min 0,0 km/h (0 Bft)
19.03.2010 01:26 16,4 C 10,0 C 0,0 UV-I 0,0 C 46 % 65 % 0 % 1015,7 hPa 0,0 l/m 0,0 km/h (0 Bft) 0 min 0,0 km/h (0 Bft)
19.03.2010 01:28 16,4 C 9,9 C 0,0 UV-I 0,0 C 46 % 65 % 0 % 1015,7 hPa 0,0 l/m 0,0 km/h (0 Bft) 0 min 0,0 km/h (0 Bft)
19.03.2010 01:30 16,4 C 9,9 C 0,0 UV-I 0,0 C 46 % 65 % 0 % 1015,7 hPa 0,0 l/m 0,0 km/h (0 Bft) 0 min 0,0 km/h (0 Bft)
19.03.2010 01:32 16,4 C 9,9 C 0,0 UV-I 0,0 C 46 % 65 % 0 % 1015,6 hPa 0,0 l/m 0,0 km/h (0 Bft) 0 min 0,0 km/h (0 Bft)
19.03.2010 01:34 16,4 C 9,8 C 0,0 UV-I 0,0 C 46 % 65 % 0 % 1015,6 hPa 0,0 l/m 0,4 km/h (0 Bft) 0 min 0,0 km/h (0 Bft)
19.03.2010 01:36 16,4 C 9,9 C 0,0 UV-I 0,0 C 46 % 64 % 0 % 1015,6 hPa 0,0 l/m 0,4 km/h (0 Bft) 0 min 0,0 km/h (0 Bft)
19.03.2010 01:38 16,4 C 9,9 C 0,0 UV-I 0,0 C 46 % 65 % 0 % 1015,6 hPa 0,0 l/m 0,4 km/h (0 Bft) 0 min 0,0 km/h (0 Bft)
19.03.2010 01:40 16,4 C 9,9 C 0,0 UV-I 0,0 C 46 % 65 % 0 % 1015,6 hPa 0,0 l/m 0,4 km/h (0 Bft) 0 min 0,0 km/h (0 Bft)
19.03.2010 01:42 16,4 C 9,9 C 0,0 UV-I 0,0 C 46 % 65 % 0 % 1015,6 hPa 0,0 l/m 0,4 km/h (0 Bft) 0 min 2,4 km/h (1 Bft)
19.03.2010 01:44 16,4 C 9,9 C 0,0 UV-I 0,1 C 46 % 64 % 0 % 1015,6 hPa 0,0 l/m 0,4 km/h (0 Bft) 0 min 2,4 km/h (1 Bft)
19.03.2010 01:46 16,4 C 9,9 C 0,0 UV-I 0,1 C 46 % 64 % 0 % 1015,6 hPa 0,0 l/m 0,4 km/h (0 Bft) 0 min 0,0 km/h (0 Bft)
19.03.2010 01:48 16,4 C 9,9 C 0,0 UV-I 0,2 C 46 % 64 % 0 % 1015,6 hPa 0,0 l/m 0,4 km/h (0 Bft) 0 min 0,0 km/h (0 Bft)
19.03.2010 01:50 16,4 C 9,9 C 0,0 UV-I 0,3 C 46 % 64 % 0 % 1015,6 hPa 0,0 l/m 0,4 km/h (0 Bft) 0 min 0,0 km/h (0 Bft)
19.03.2010 01:52 16,4 C 9,9 C 0,0 UV-I 0,2 C 46 % 64 % 0 % 1015,9 hPa 0,0 l/m 0,4 km/h (0 Bft) 0 min 0,0 km/h (0 Bft)
19.03.2010 01:54 16,4 C 10,0 C 0,0 UV-I 0,2 C 46 % 63 % 0 % 1015,9 hPa 0,0 l/m 0,4 km/h (0 Bft) 0 min 0,0 km/h (0 Bft)
19.03.2010 01:56 16,4 C 10,0 C 0,0 UV-I 0,4 C 46 % 63 % 0 % 1015,9 hPa 0,0 l/m 0,4 km/h (0 Bft) 0 min 0,0 km/h (0 Bft)
19.03.2010 01:58 16,4 C 10,1 C 0,0 UV-I 0,5 C 46 % 62 % 0 % 1015,9 hPa 0,0 l/m 0,4 km/h (0 Bft) 0 min 0,0 km/h (0 Bft)
19.03.2010 02:00 16,4 C 10,3 C 0,0 UV-I 0,4 C 46 % 62 % 0 % 1015,9 hPa 0,0 l/m 0,8 km/h (0 Bft) 0 min 4,6 km/h (1 Bft)
19.03.2010 02:02 16,4 C 10,3 C 0,0 UV-I 0,5 C 46 % 61 % 0 % 1015,9 hPa 0,0 l/m 1,2 km/h (1 Bft) 0 min 0,0 km/h (0 Bft)
19.03.2010 02:04 16,4 C 10,3 C 0,0 UV-I 0,8 C 46 % 61 % 0 % 1015,9 hPa 0,0 l/m 1,6 km/h (1 Bft) 0 min 5,5 km/h (1 Bft)
19.03.2010 02:06 16,4 C 10,4 C 0,0 UV-I 0,8 C 46 % 60 % 0 % 1015,9 hPa 0,0 l/m 2,0 km/h (1 Bft) 0 min 4,1 km/h (1 Bft)
19.03.2010 02:08 16,4 C 10,6 C 0,0 UV-I 0,7 C 46 % 60 % 0 % 1015,9 hPa 0,0 l/m 2,4 km/h (1 Bft) 0 min 0,0 km/h (0 Bft)
19.03.2010 02:10 16,4 C 10,8 C 0,0 UV-I 0,7 C 46 % 59 % 0 % 1015,9 hPa 0,0 l/m 2,8 km/h (1 Bft) 0 min 4,3 km/h (1 Bft)
19.03.2010 02:12 16,4 C 10,9 C 0,0 UV-I 0,8 C 45 % 58 % 0 % 1015,8 hPa 0,0 l/m 2,8 km/h (1 Bft) 0 min 0,0 km/h (0 Bft)
19.03.2010 02:14 16,4 C 11,0 C 0,0 UV-I 0,8 C 45 % 58 % 0 % 1015,8 hPa 0,0 l/m 3,2 km/h (1 Bft) 0 min 0,0 km/h (0 Bft)
19.03.2010 02:16 16,4 C 11,1 C 0,0 UV-I 0,8 C 45 % 57 % 0 % 1015,8 hPa 0,0 l/m 4,0 km/h (1 Bft) 0 min 7,2 km/h (2 Bft)
19.03.2010 02:18 16,4 C 11,3 C 0,0 UV-I 0,8 C 45 % 57 % 0 % 1015,8 hPa 0,0 l/m 4,4 km/h (1 Bft) 0 min 4,1 km/h (1 Bft)
19.03.2010 02:20 16,4 C 11,3 C 0,0 UV-I 0,9 C 45 % 57 % 0 % 1015,8 hPa 0,0 l/m 5,2 km/h (1 Bft) 0 min 13,0 km/h (3 Bft)
19.03.2010 02:22 16,4 C 11,5 C 0,0 UV-I 0,8 C 45 % 57 % 0 % 1015,8 hPa 0,0 l/m 5,6 km/h (1 Bft) 0 min 4,6 km/h (1 Bft)
19.03.2010 02:24 16,4 C 11,4 C 0,0 UV-I 1,0 C 45 % 57 % 0 % 1015,8 hPa 0,0 l/m 6,4 km/h (2 Bft) 0 min 9,4 km/h (2 Bft)
19.03.2010 02:26 16,4 C 11,6 C 0,0 UV-I 0,8 C 45 % 57 % 0 % 1015,8 hPa 0,0 l/m 6,4 km/h (2 Bft) 0 min 11,8 km/h (2 Bft)
19.03.2010 02:28 16,4 C 11,7 C 0,0 UV-I 0,8 C 45 % 56 % 0 % 1015,8 hPa 0,0 l/m 5,6 km/h (1 Bft) 0 min 2,4 km/h (1 Bft)
19.03.2010 02:30 16,4 C 11,7 C 0,0 UV-I 0,9 C 45 % 55 % 0 % 1015,8 hPa 0,0 l/m 6,4 km/h (2 Bft) 0 min 13,7 km/h (3 Bft)
19.03.2010 02:32 16,4 C 11,8 C 0,0 UV-I 0,9 C 45 % 55 % 0 % 1015,8 hPa 0,0 l/m 6,0 km/h (2 Bft) 0 min 5,8 km/h (2 Bft)
19.03.2010 02:34 16,4 C 11,9 C 0,0 UV-I 0,8 C 45 % 55 % 0 % 1015,8 hPa 0,0 l/m 6,0 km/h (2 Bft) 0 min 2,6 km/h (1 Bft)
19.03.2010 02:36 16,4 C 11,9 C 0,0 UV-I 0,9 C 45 % 55 % 0 % 1015,8 hPa 0,0 l/m 5,6 km/h (1 Bft) 0 min 4,3 km/h (1 Bft)
19.03.2010 02:38 16,4 C 12,0 C 0,0 UV-I 0,8 C 45 % 54 % 0 % 1015,8 hPa 0,0 l/m 5,6 km/h (1 Bft) 0 min 6,3 km/h (2 Bft)
19.03.2010 02:40 16,4 C 12,1 C 0,0 UV-I 0,7 C 45 % 54 % 0 % 1015,8 hPa 0,0 l/m 5,6 km/h (1 Bft) 0 min 7,2 km/h (2 Bft)
19.03.2010 02:42 16,4 C 12,1 C 0,0 UV-I 0,8 C 45 % 54 % 0 % 1015,8 hPa 0,0 l/m 6,0 km/h (2 Bft) 0 min 6,0 km/h (2 Bft)
19.03.2010 02:44 16,4 C 12,3 C 0,0 UV-I 0,6 C 45 % 54 % 0 % 1015,8 hPa 0,0 l/m 6,8 km/h (2 Bft) 0 min 6,5 km/h (2 Bft)
19.03.2010 02:46 16,4 C 12,3 C 0,0 UV-I 0,7 C 44 % 53 % 0 % 1015,8 hPa 0,0 l/m 8,4 km/h (2 Bft) 0 min 5,1 km/h (1 Bft)
19.03.2010 02:48 16,4 C 12,5 C 0,0 UV-I 0,6 C 44 % 53 % 0 % 1015,8 hPa 0,0 l/m 8,4 km/h (2 Bft) 0 min 10,3 km/h (2 Bft)
19.03.2010 02:50 16,4 C 12,4 C 0,0 UV-I 0,7 C 44 % 53 % 0 % 1015,8 hPa 0,0 l/m 8,4 km/h (2 Bft) 0 min 7,7 km/h (2 Bft)
19.03.2010 02:52 16,4 C 12,5 C 0,0 UV-I 0,6 C 44 % 53 % 0 % 1015,6 hPa 0,0 l/m 10,0 km/h (2 Bft) 0 min 13,7 km/h (3 Bft)
19.03.2010 02:54 16,4 C 12,6 C 0,0 UV-I 0,5 C 44 % 52 % 0 % 1015,6 hPa 0,0 l/m 10,0 km/h (2 Bft) 0 min 5,1 km/h (1 Bft)
19.03.2010 02:56 16,4 C 12,7 C 0,0 UV-I 0,4 C 44 % 53 % 0 % 1015,6 hPa 0,0 l/m 9,2 km/h (2 Bft) 0 min 6,5 km/h (2 Bft)
19.03.2010 02:58 16,4 C 12,6 C 0,0 UV-I 0,5 C 44 % 52 % 0 % 1015,6 hPa 0,0 l/m 10,0 km/h (2 Bft) 0 min 8,2 km/h (2 Bft)
19.03.2010 03:00 16,4 C 12,7 C 0,0 UV-I 0,4 C 44 % 52 % 0 % 1015,6 hPa 0,0 l/m 10,4 km/h (2 Bft) 0 min 9,4 km/h (2 Bft)
19.03.2010 03:02 16,4 C 12,7 C 0,0 UV-I 0,4 C 44 % 52 % 0 % 1015,6 hPa 0,0 l/m 10,4 km/h (2 Bft) 0 min 5,1 km/h (1 Bft)
19.03.2010 03:04 16,4 C 12,8 C 0,0 UV-I 0,3 C 44 % 52 % 0 % 1015,6 hPa 0,0 l/m 10,4 km/h (2 Bft) 0 min 5,1 km/h (1 Bft)
19.03.2010 03:06 16,4 C 12,9 C 0,0 UV-I 0,2 C 44 % 52 % 0 % 1015,6 hPa 0,0 l/m 9,6 km/h (2 Bft) 0 min 8,7 km/h (2 Bft)
19.03.2010 03:08 16,4 C 12,9 C 0,0 UV-I 0,2 C 44 % 52 % 0 % 1015,6 hPa 0,0 l/m 10,0 km/h (2 Bft) 0 min 6,5 km/h (2 Bft)
19.03.2010 03:10 16,4 C 12,9 C 0,0 UV-I 0,2 C 44 % 51 % 0 % 1015,6 hPa 0,0 l/m 9,6 km/h (2 Bft) 0 min 5,1 km/h (1 Bft)
19.03.2010 03:12 16,4 C 13,1 C 0,0 UV-I 0,0 C 44 % 52 % 0 % 1015,5 hPa 0,0 l/m 9,6 km/h (2 Bft) 0 min 4,3 km/h (1 Bft)
19.03.2010 03:14 16,4 C 13,1 C 0,0 UV-I 0,0 C 44 % 52 % 0 % 1015,5 hPa 0,0 l/m 9,6 km/h (2 Bft) 0 min 10,8 km/h (2 Bft)
19.03.2010 03:16 16,4 C 13,0 C 0,0 UV-I 0,1 C 44 % 51 % 0 % 1015,5 hPa 0,0 l/m 10,8 km/h (2 Bft) 0 min 13,7 km/h (3 Bft)
19.03.2010 03:18 16,4 C 13,1 C 0,0 UV-I 0,0 C 44 % 51 % 0 % 1015,5 hPa 0,0 l/m 11,2 km/h (2 Bft) 0 min 9,6 km/h (2 Bft)
19.03.2010 03:20 16,4 C 13,1 C 0,0 UV-I 0,0 C 44 % 51 % 0 % 1015,5 hPa 0,0 l/m 11,2 km/h (2 Bft) 0 min 15,4 km/h (3 Bft)
19.03.2010 03:22 16,4 C 13,2 C 0,0 UV-I 0,0 C 44 % 51 % 0 % 1015,5 hPa 0,0 l/m 11,2 km/h (2 Bft) 0 min 3,8 km/h (1 Bft)
19.03.2010 03:24 16,4 C 13,3 C 0,0 UV-I 0,0 C 44 % 51 % 0 % 1015,5 hPa 0,0 l/m 11,6 km/h (2 Bft) 0 min 7,0 km/h (2 Bft)
19.03.2010 03:26 16,4 C 13,2 C 0,0 UV-I 0,0 C 44 % 51 % 0 % 1015,5 hPa 0,0 l/m 11,2 km/h (2 Bft) 0 min 7,5 km/h (2 Bft)
19.03.2010 03:28 16,4 C 13,2 C 0,0 UV-I 0,0 C 44 % 51 % 0 % 1015,5 hPa 0,0 l/m 10,0 km/h (2 Bft) 0 min 6,7 km/h (2 Bft)
19.03.2010 03:30 16,4 C 13,2 C 0,0 UV-I 0,0 C 44 % 51 % 0 % 1015,5 hPa 0,0 l/m 10,0 km/h (2 Bft) 0 min 5,8 km/h (2 Bft)
19.03.2010 03:32 16,4 C 13,2 C 0,0 UV-I 0,0 C 44 % 51 % 0 % 1015,4 hPa 0,0 l/m 10,0 km/h (2 Bft) 0 min 6,0 km/h (2 Bft)
19.03.2010 03:34 16,4 C 13,2 C 0,0 UV-I 0,0 C 44 % 51 % 0 % 1015,4 hPa 0,0 l/m 10,0 km/h (2 Bft) 0 min 4,8 km/h (1 Bft)
19.03.2010 03:36 16,4 C 13,3 C 0,0 UV-I 0,0 C 44 % 51 % 0 % 1015,4 hPa 0,0 l/m 9,6 km/h (2 Bft) 0 min 8,4 km/h (2 Bft)
19.03.2010 03:38 16,4 C 13,3 C 0,0 UV-I 0,0 C 44 % 51 % 0 % 1015,4 hPa 0,0 l/m 9,6 km/h (2 Bft) 0 min 12,0 km/h (2 Bft)
19.03.2010 03:40 16,4 C 13,3 C 0,0 UV-I 0,0 C 44 % 51 % 0 % 1015,4 hPa 0,0 l/m 9,2 km/h (2 Bft) 0 min 4,8 km/h (1 Bft)
19.03.2010 03:42 16,4 C 13,4 C 0,0 UV-I 0,0 C 44 % 50 % 0 % 1015,4 hPa 0,0 l/m 9,2 km/h (2 Bft) 0 min 7,9 km/h (2 Bft)
19.03.2010 03:44 16,4 C 13,4 C 0,0 UV-I 0,0 C 43 % 51 % 0 % 1015,4 hPa 0,0 l/m 8,4 km/h (2 Bft) 0 min 4,6 km/h (1 Bft)
19.03.2010 03:46 16,4 C 13,5 C 0,0 UV-I 0,0 C 43 % 51 % 0 % 1015,4 hPa 0,0 l/m 8,0 km/h (2 Bft) 0 min 0,0 km/h (0 Bft)
19.03.2010 03:48 16,4 C 13,5 C 0,0 UV-I 0,0 C 43 % 51 % 0 % 1015,4 hPa 0,0 l/m 7,6 km/h (2 Bft) 0 min 4,6 km/h (1 Bft)
19.03.2010 03:50 16,4 C 13,5 C 0,0 UV-I 0,0 C 43 % 50 % 0 % 1015,4 hPa 0,0 l/m 7,6 km/h (2 Bft) 0 min 8,2 km/h (2 Bft)
19.03.2010 03:52 16,4 C 13,5 C 0,0 UV-I 0,0 C 43 % 51 % 0 % 1016,0 hPa 0,0 l/m 7,2 km/h (2 Bft) 0 min 3,8 km/h (1 Bft)
19.03.2010 03:54 16,4 C 13,4 C 0,0 UV-I 0,0 C 43 % 51 % 0 % 1016,0 hPa 0,0 l/m 7,2 km/h (2 Bft) 0 min 6,7 km/h (2 Bft)
19.03.2010 03:56 16,4 C 13,4 C 0,0 UV-I 0,0 C 44 % 50 % 0 % 1016,0 hPa 0,0 l/m 7,2 km/h (2 Bft) 0 min 6,7 km/h (2 Bft)
19.03.2010 03:58 16,4 C 13,5 C 0,0 UV-I 0,0 C 44 % 50 % 0 % 1016,0 hPa 0,0 l/m 8,0 km/h (2 Bft) 0 min 3,8 km/h (1 Bft)
19.03.2010 04:00 16,4 C 13,5 C 0,0 UV-I 0,0 C 43 % 50 % 0 % 1016,0 hPa 0,0 l/m 8,0 km/h (2 Bft) 0 min 7,9 km/h (2 Bft)
19.03.2010 04:02 16,4 C 13,5 C 0,0 UV-I 0,0 C 43 % 50 % 0 % 1016,0 hPa 0,0 l/m 8,4 km/h (2 Bft) 0 min 6,5 km/h (2 Bft)
19.03.2010 04:04 16,4 C 13,5 C 0,0 UV-I 0,0 C 43 % 50 % 0 % 1016,0 hPa 0,0 l/m 9,6 km/h (2 Bft) 0 min 5,1 km/h (1 Bft)
19.03.2010 04:08 16,4 C 13,4 C 0,0 UV-I 0,0 C 43 % 51 % 0 % 1016,0 hPa 0,0 l/m 10,0 km/h (2 Bft) 0 min 7,2 km/h (2 Bft)
19.03.2010 04:10 16,4 C 13,4 C 0,0 UV-I 0,0 C 43 % 51 % 0 % 1016,0 hPa 0,0 l/m 9,6 km/h (2 Bft) 0 min 20,7 km/h (4 Bft)
19.03.2010 04:13 16,4 C 13,5 C 0,0 UV-I 0,0 C 43 % 51 % 0 % 1015,8 hPa 0,0 l/m 8,4 km/h (2 Bft) 0 min 8,2 km/h (2 Bft)
19.03.2010 04:19 16,4 C 13,5 C 0,0 UV-I 0,0 C 43 % 51 % 0 % 1015,8 hPa 0,0 l/m 8,8 km/h (2 Bft) 0 min 12,5 km/h (3 Bft)
19.03.2010 04:20 16,4 C 13,5 C 0,0 UV-I 0,0 C 43 % 51 % 0 % 1015,8 hPa 0,0 l/m 8,8 km/h (2 Bft) 0 min 12,5 km/h (3 Bft)
19.03.2010 04:22 16,4 C 13,5 C 0,0 UV-I 0,0 C 43 % 51 % 0 % 1015,8 hPa 0,0 l/m 9,2 km/h (2 Bft) 0 min 6,0 km/h (2 Bft)
19.03.2010 04:24 16,4 C 13,5 C 0,0 UV-I 0,0 C 43 % 51 % 0 % 1015,8 hPa 0,0 l/m 9,2 km/h (2 Bft) 0 min 11,8 km/h (2 Bft)
19.03.2010 04:26 16,4 C 13,5 C 0,0 UV-I 0,0 C 43 % 51 % 0 % 1015,8 hPa 0,0 l/m 9,6 km/h (2 Bft) 0 min 9,6 km/h (2 Bft)
19.03.2010 04:28 16,4 C 13,5 C 0,0 UV-I 0,0 C 43 % 51 % 0 % 1015,8 hPa 0,0 l/m 10,0 km/h (2 Bft) 0 min 5,8 km/h (2 Bft)
19.03.2010 04:30 16,5 C 13,5 C 0,0 UV-I 0,0 C 43 % 51 % 0 % 1015,8 hPa 0,0 l/m 9,2 km/h (2 Bft) 0 min 5,5 km/h (1 Bft)
19.03.2010 04:32 16,4 C 13,5 C 0,0 UV-I 0,0 C 43 % 51 % 0 % 1015,9 hPa 0,0 l/m 8,4 km/h (2 Bft) 0 min 7,9 km/h (2 Bft)
19.03.2010 04:34 16,4 C 13,4 C 0,0 UV-I 0,0 C 43 % 51 % 0 % 1015,9 hPa 0,0 l/m 9,2 km/h (2 Bft) 0 min 7,0 km/h (2 Bft)
19.03.2010 04:36 16,4 C 13,5 C 0,0 UV-I 0,0 C 43 % 51 % 0 % 1015,9 hPa 0,0 l/m 8,8 km/h (2 Bft) 0 min 7,2 km/h (2 Bft)
19.03.2010 04:38 16,4 C 13,5 C 0,0 UV-I 0,0 C 43 % 51 % 0 % 1015,9 hPa 0,0 l/m 8,8 km/h (2 Bft) 0 min 9,1 km/h (2 Bft)
19.03.2010 04:40 16,4 C 13,4 C 0,0 UV-I 0,0 C 43 % 51 % 0 % 1015,9 hPa 0,0 l/m 8,0 km/h (2 Bft) 0 min 2,4 km/h (1 Bft)
19.03.2010 04:42 16,4 C 13,4 C 0,0 UV-I 0,0 C 43 % 51 % 0 % 1015,9 hPa 0,0 l/m 8,8 km/h (2 Bft) 0 min 6,7 km/h (2 Bft)
19.03.2010 04:44 16,4 C 13,4 C 0,0 UV-I 0,0 C 43 % 52 % 0 % 1015,9 hPa 0,0 l/m 8,0 km/h (2 Bft) 0 min 6,7 km/h (2 Bft)
19.03.2010 04:46 16,4 C 13,4 C 0,0 UV-I 0,0 C 43 % 52 % 0 % 1015,9 hPa 0,0 l/m 8,4 km/h (2 Bft) 0 min 4,3 km/h (1 Bft)
19.03.2010 04:48 16,4 C 13,3 C 0,0 UV-I 0,0 C 43 % 51 % 0 % 1015,9 hPa 0,0 l/m 8,4 km/h (2 Bft) 0 min 6,7 km/h (2 Bft)
19.03.2010 04:50 16,4 C 13,3 C 0,0 UV-I 0,0 C 43 % 52 % 0 % 1015,9 hPa 0,0 l/m 8,0 km/h (2 Bft) 0 min 4,8 km/h (1 Bft)
19.03.2010 04:52 16,5 C 13,3 C 0,0 UV-I 0,0 C 43 % 52 % 0 % 1015,8 hPa 0,0 l/m 9,2 km/h (2 Bft) 0 min 9,1 km/h (2 Bft)
19.03.2010 04:54 16,5 C 13,3 C 0,0 UV-I 0,0 C 43 % 52 % 0 % 1015,8 hPa 0,0 l/m 8,8 km/h (2 Bft) 0 min 6,7 km/h (2 Bft)
19.03.2010 04:56 16,5 C 13,3 C 0,0 UV-I 0,0 C 43 % 52 % 0 % 1015,8 hPa 0,0 l/m 8,8 km/h (2 Bft) 0 min 5,1 km/h (1 Bft)
19.03.2010 04:58 16,5 C 13,3 C 0,0 UV-I 0,0 C 43 % 52 % 0 % 1015,8 hPa 0,0 l/m 8,0 km/h (2 Bft) 0 min 7,2 km/h (2 Bft)
19.03.2010 05:00 16,5 C 13,3 C 0,0 UV-I 0,0 C 43 % 52 % 0 % 1015,8 hPa 0,0 l/m 6,8 km/h (2 Bft) 0 min 4,3 km/h (1 Bft)
19.03.2010 05:02 16,4 C 13,3 C 0,0 UV-I 0,0 C 43 % 52 % 0 % 1015,8 hPa 0,0 l/m 6,4 km/h (2 Bft) 0 min 3,6 km/h (1 Bft)
19.03.2010 05:04 16,5 C 13,3 C 0,0 UV-I 0,0 C 43 % 52 % 0 % 1015,8 hPa 0,0 l/m 6,4 km/h (2 Bft) 0 min 6,3 km/h (2 Bft)
19.03.2010 05:06 16,5 C 13,3 C 0,0 UV-I 0,0 C 43 % 52 % 0 % 1015,8 hPa 0,0 l/m 6,0 km/h (2 Bft) 0 min 6,5 km/h (2 Bft)
19.03.2010 05:08 16,4 C 13,3 C 0,0 UV-I 0,0 C 43 % 53 % 0 % 1015,8 hPa 0,0 l/m 6,8 km/h (2 Bft) 0 min 5,3 km/h (1 Bft)
19.03.2010 05:10 16,5 C 13,2 C 0,0 UV-I 0,0 C 43 % 52 % 0 % 1015,8 hPa 0,0 l/m 7,2 km/h (2 Bft) 0 min 5,3 km/h (1 Bft)
19.03.2010 05:12 16,4 C 13,2 C 0,0 UV-I 0,0 C 43 % 52 % 0 % 1016,1 hPa 0,0 l/m 8,4 km/h (2 Bft) 0 min 12,8 km/h (3 Bft)
19.03.2010 05:14 16,5 C 13,2 C 0,0 UV-I 0,0 C 43 % 52 % 0 % 1016,1 hPa 0,0 l/m 8,0 km/h (2 Bft) 0 min 4,1 km/h (1 Bft)
19.03.2010 05:16 16,4 C 13,2 C 0,0 UV-I 0,0 C 44 % 53 % 0 % 1016,1 hPa 0,0 l/m 8,0 km/h (2 Bft) 0 min 2,9 km/h (1 Bft)
19.03.2010 05:18 16,5 C 13,2 C 0,0 UV-I 0,0 C 43 % 53 % 0 % 1016,1 hPa 0,0 l/m 8,0 km/h (2 Bft) 0 min 5,1 km/h (1 Bft)
19.03.2010 05:20 16,4 C 13,2 C 0,0 UV-I 0,0 C 43 % 53 % 0 % 1016,1 hPa 0,0 l/m 7,6 km/h (2 Bft) 0 min 7,9 km/h (2 Bft)
19.03.2010 05:22 16,5 C 13,2 C 0,0 UV-I 0,0 C 43 % 53 % 0 % 1016,1 hPa 0,0 l/m 7,2 km/h (2 Bft) 0 min 4,6 km/h (1 Bft)
19.03.2010 05:24 16,4 C 13,2 C 0,0 UV-I 0,0 C 44 % 53 % 0 % 1016,1 hPa 0,0 l/m 6,8 km/h (2 Bft) 0 min 7,0 km/h (2 Bft)
19.03.2010 05:26 16,4 C 13,2 C 0,0 UV-I 0,0 C 44 % 53 % 0 % 1016,1 hPa 0,0 l/m 6,8 km/h (2 Bft) 0 min 3,6 km/h (1 Bft)
19.03.2010 05:28 16,5 C 13,2 C 0,0 UV-I 0,0 C 44 % 53 % 0 % 1016,1 hPa 0,0 l/m 8,0 km/h (2 Bft) 0 min 6,5 km/h (2 Bft)
19.03.2010 05:30 16,4 C 13,2 C 0,0 UV-I 0,0 C 44 % 53 % 0 % 1016,1 hPa 0,0 l/m 8,4 km/h (2 Bft) 0 min 6,7 km/h (2 Bft)
19.03.2010 05:32 16,5 C 13,3 C 0,0 UV-I 0,0 C 44 % 53 % 0 % 1016,2 hPa 0,0 l/m 7,6 km/h (2 Bft) 0 min 3,8 km/h (1 Bft)
19.03.2010 05:34 16,4 C 13,3 C 0,0 UV-I 0,0 C 44 % 54 % 0 % 1016,2 hPa 0,0 l/m 7,6 km/h (2 Bft) 0 min 6,5 km/h (2 Bft)
19.03.2010 05:38 16,4 C 13,2 C 0,0 UV-I 0,0 C 44 % 54 % 0 % 1016,2 hPa 0,0 l/m 7,2 km/h (2 Bft) 0 min 6,5 km/h (2 Bft)
19.03.2010 05:40 16,5 C 13,2 C 0,0 UV-I 0,0 C 44 % 54 % 0 % 1016,2 hPa 0,0 l/m 5,6 km/h (1 Bft) 0 min 0,0 km/h (0 Bft)
19.03.2010 05:42 16,5 C 13,2 C 0,0 UV-I 0,0 C 44 % 54 % 0 % 1016,2 hPa 0,0 l/m 4,8 km/h (1 Bft) 0 min 7,9 km/h (2 Bft)
19.03.2010 05:44 16,4 C 13,2 C 0,0 UV-I 0,0 C 44 % 54 % 0 % 1016,2 hPa 0,0 l/m 4,8 km/h (1 Bft) 0 min 5,5 km/h (1 Bft)
19.03.2010 05:46 16,4 C 13,2 C 0,0 UV-I 0,0 C 44 % 54 % 0 % 1016,2 hPa 0,0 l/m 4,8 km/h (1 Bft) 0 min 7,2 km/h (2 Bft)
19.03.2010 05:48 16,4 C 13,2 C 0,0 UV-I 0,0 C 44 % 54 % 0 % 1016,2 hPa 0,0 l/m 5,2 km/h (1 Bft) 0 min 2,6 km/h (1 Bft)
19.03.2010 05:50 16,4 C 13,2 C 0,0 UV-I 0,0 C 44 % 55 % 0 % 1016,2 hPa 0,0 l/m 5,2 km/h (1 Bft) 0 min 5,3 km/h (1 Bft)
19.03.2010 05:52 16,4 C 13,1 C 0,0 UV-I 0,0 C 44 % 55 % 0 % 1016,0 hPa 0,0 l/m 6,0 km/h (2 Bft) 0 min 0,0 km/h (0 Bft)
19.03.2010 05:54 16,4 C 13,1 C 0,0 UV-I 0,0 C 44 % 55 % 0 % 1016,0 hPa 0,0 l/m 6,0 km/h (2 Bft) 0 min 5,8 km/h (2 Bft)
19.03.2010 05:56 16,4 C 13,1 C 0,0 UV-I 0,0 C 44 % 55 % 0 % 1016,0 hPa 0,0 l/m 5,6 km/h (1 Bft) 0 min 6,5 km/h (2 Bft)
19.03.2010 05:58 16,4 C 13,1 C 0,0 UV-I 0,0 C 44 % 55 % 0 % 1016,0 hPa 0,0 l/m 6,0 km/h (2 Bft) 0 min 4,3 km/h (1 Bft)
19.03.2010 06:00 16,4 C 13,1 C 0,0 UV-I 0,0 C 44 % 55 % 0 % 1016,0 hPa 0,0 l/m 6,4 km/h (2 Bft) 0 min 3,1 km/h (1 Bft)
19.03.2010 06:02 16,5 C 13,1 C 0,0 UV-I 0,0 C 44 % 55 % 0 % 1016,0 hPa 0,0 l/m 6,0 km/h (2 Bft) 0 min 5,1 km/h (1 Bft)
19.03.2010 06:04 16,5 C 13,1 C 0,0 UV-I 0,0 C 44 % 55 % 0 % 1016,0 hPa 0,0 l/m 6,0 km/h (2 Bft) 0 min 5,1 km/h (1 Bft)
19.03.2010 06:10 16,4 C 13,1 C 0,0 UV-I 0,0 C 44 % 55 % 0 % 1016,0 hPa 0,0 l/m 6,8 km/h (2 Bft) 0 min 6,3 km/h (2 Bft)
19.03.2010 06:12 16,4 C 13,1 C 0,0 UV-I 0,0 C 44 % 55 % 0 % 1016,1 hPa 0,0 l/m 7,2 km/h (2 Bft) 0 min 10,6 km/h (2 Bft)
19.03.2010 06:14 16,4 C 13,1 C 0,0 UV-I 0,0 C 44 % 55 % 0 % 1016,1 hPa 0,0 l/m 7,2 km/h (2 Bft) 0 min 4,1 km/h (1 Bft)
19.03.2010 06:16 16,5 C 13,1 C 0,0 UV-I 0,0 C 44 % 55 % 0 % 1016,1 hPa 0,0 l/m 7,2 km/h (2 Bft) 0 min 2,9 km/h (1 Bft)
19.03.2010 06:18 16,4 C 13,1 C 0,0 UV-I 0,0 C 44 % 55 % 0 % 1016,1 hPa 0,0 l/m 7,2 km/h (2 Bft) 0 min 4,6 km/h (1 Bft)
19.03.2010 06:20 16,4 C 13,1 C 0,0 UV-I 0,0 C 44 % 55 % 0 % 1016,1 hPa 0,0 l/m 8,0 km/h (2 Bft) 0 min 6,3 km/h (2 Bft)
19.03.2010 06:22 16,4 C 13,1 C 0,0 UV-I 0,0 C 44 % 55 % 0 % 1016,1 hPa 0,0 l/m 9,6 km/h (2 Bft) 0 min 18,3 km/h (3 Bft)
19.03.2010 06:24 16,4 C 13,1 C 0,0 UV-I 0,0 C 44 % 55 % 0 % 1016,1 hPa 0,0 l/m 8,4 km/h (2 Bft) 0 min 4,3 km/h (1 Bft)
19.03.2010 06:26 16,4 C 13,1 C 0,0 UV-I 0,0 C 44 % 55 % 0 % 1016,1 hPa 0,0 l/m 8,8 km/h (2 Bft) 0 min 5,8 km/h (2 Bft)
19.03.2010 06:28 16,4 C 13,1 C 0,0 UV-I 0,0 C 44 % 55 % 0 % 1016,1 hPa 0,0 l/m 9,6 km/h (2 Bft) 0 min 12,5 km/h (3 Bft)
19.03.2010 06:32 16,4 C 13,1 C 0,0 UV-I 0,0 C 44 % 56 % 0 % 1016,2 hPa 0,0 l/m 8,4 km/h (2 Bft) 0 min 5,3 km/h (1 Bft)
19.03.2010 06:34 16,4 C 13,1 C 0,0 UV-I 0,0 C 44 % 56 % 0 % 1016,2 hPa 0,0 l/m 8,0 km/h (2 Bft) 0 min 18,3 km/h (3 Bft)
19.03.2010 06:36 16,5 C 13,1 C 0,0 UV-I 0,0 C 44 % 56 % 0 % 1016,2 hPa 0,0 l/m 8,0 km/h (2 Bft) 0 min 4,6 km/h (1 Bft)
19.03.2010 06:38 16,4 C 13,1 C 0,0 UV-I 0,0 C 44 % 56 % 0 % 1016,2 hPa 0,0 l/m 8,0 km/h (2 Bft) 0 min 3,6 km/h (1 Bft)
19.03.2010 06:40 16,4 C 13,1 C 0,0 UV-I 0,0 C 44 % 56 % 0 % 1016,2 hPa 0,0 l/m 7,2 km/h (2 Bft) 0 min 3,1 km/h (1 Bft)
19.03.2010 06:42 16,5 C 13,1 C 0,0 UV-I 0,0 C 44 % 56 % 0 % 1016,2 hPa 0,0 l/m 7,6 km/h (2 Bft) 0 min 4,6 km/h (1 Bft)
19.03.2010 06:44 16,4 C 13,1 C 0,0 UV-I 0,0 C 44 % 56 % 0 % 1016,2 hPa 0,0 l/m 9,2 km/h (2 Bft) 0 min 12,5 km/h (3 Bft)
19.03.2010 06:46 16,5 C 13,1 C 0,0 UV-I 0,0 C 44 % 56 % 0 % 1016,2 hPa 0,0 l/m 8,4 km/h (2 Bft) 0 min 9,4 km/h (2 Bft)
19.03.2010 06:48 16,4 C 13,1 C 0,0 UV-I 0,0 C 44 % 56 % 0 % 1016,2 hPa 0,0 l/m 8,8 km/h (2 Bft) 0 min 5,5 km/h (1 Bft)
19.03.2010 06:50 16,4 C 13,1 C 0,0 UV-I 0,0 C 44 % 57 % 0 % 1016,2 hPa 0,0 l/m 10,0 km/h (2 Bft) 0 min 12,0 km/h (2 Bft)
19.03.2010 06:52 16,4 C 13,1 C 0,0 UV-I 0,0 C 44 % 56 % 0 % 1016,4 hPa 0,0 l/m 10,0 km/h (2 Bft) 0 min 7,9 km/h (2 Bft)
19.03.2010 06:54 16,4 C 13,0 C 0,0 UV-I 0,0 C 44 % 57 % 0 % 1016,4 hPa 0,0 l/m 9,2 km/h (2 Bft) 0 min 8,9 km/h (2 Bft)
19.03.2010 06:56 16,4 C 13,1 C 0,0 UV-I 0,0 C 44 % 57 % 0 % 1016,4 hPa 0,0 l/m 9,2 km/h (2 Bft) 0 min 6,7 km/h (2 Bft)
19.03.2010 07:02 16,4 C 13,1 C 0,0 UV-I 0,0 C 44 % 57 % 0 % 1016,4 hPa 0,0 l/m 8,8 km/h (2 Bft) 0 min 13,0 km/h (3 Bft)
19.03.2010 07:06 16,4 C 13,1 C 0,0 UV-I 0,0 C 44 % 58 % 0 % 1016,4 hPa 0,0 l/m 8,8 km/h (2 Bft) 0 min 7,0 km/h (2 Bft)
19.03.2010 07:08 16,4 C 13,0 C 0,0 UV-I 0,0 C 44 % 58 % 0 % 1016,4 hPa 0,0 l/m 8,0 km/h (2 Bft) 0 min 3,4 km/h (1 Bft)
19.03.2010 07:10 16,4 C 13,1 C 0,0 UV-I 0,0 C 44 % 58 % 0 % 1016,4 hPa 0,0 l/m 6,4 km/h (2 Bft) 0 min 11,3 km/h (2 Bft)
19.03.2010 07:12 16,4 C 13,1 C 0,0 UV-I 0,0 C 44 % 58 % 0 % 1016,4 hPa 0,0 l/m 7,6 km/h (2 Bft) 0 min 9,9 km/h (2 Bft)
19.03.2010 07:14 16,4 C 13,1 C 0,0 UV-I 0,0 C 45 % 58 % 0 % 1016,4 hPa 0,0 l/m 8,0 km/h (2 Bft) 0 min 7,5 km/h (2 Bft)
19.03.2010 07:16 16,4 C 13,0 C 0,0 UV-I 0,0 C 45 % 58 % 0 % 1016,4 hPa 0,0 l/m 8,4 km/h (2 Bft) 0 min 3,6 km/h (1 Bft)
19.03.2010 07:18 16,4 C 13,1 C 0,0 UV-I 0,0 C 45 % 58 % 0 % 1016,4 hPa 0,0 l/m 9,6 km/h (2 Bft) 0 min 12,5 km/h (3 Bft)
19.03.2010 07:20 16,4 C 13,1 C 0,0 UV-I 0,0 C 45 % 58 % 0 % 1016,4 hPa 0,0 l/m 10,4 km/h (2 Bft) 0 min 5,8 km/h (2 Bft)
19.03.2010 07:22 16,4 C 13,1 C 0,0 UV-I 0,0 C 45 % 59 % 0 % 1016,4 hPa 0,0 l/m 10,0 km/h (2 Bft) 0 min 7,7 km/h (2 Bft)
19.03.2010 07:24 16,4 C 13,1 C 0,0 UV-I 0,0 C 45 % 59 % 0 % 1016,4 hPa 0,0 l/m 9,6 km/h (2 Bft) 0 min 6,0 km/h (2 Bft)
19.03.2010 07:28 16,4 C 13,2 C 0,0 UV-I 0,0 C 45 % 59 % 0 % 1016,4 hPa 0,0 l/m 10,8 km/h (2 Bft) 0 min 9,9 km/h (2 Bft)
19.03.2010 07:30 16,4 C 13,2 C 0,0 UV-I 0,0 C 45 % 59 % 0 % 1016,4 hPa 0,0 l/m 10,0 km/h (2 Bft) 0 min 6,7 km/h (2 Bft)
19.03.2010 07:32 16,4 C 13,1 C 0,0 UV-I 0,0 C 45 % 59 % 0 % 1016,6 hPa 0,0 l/m 10,4 km/h (2 Bft) 0 min 7,5 km/h (2 Bft)
19.03.2010 07:34 16,4 C 13,2 C 0,0 UV-I 0,0 C 45 % 59 % 0 % 1016,6 hPa 0,0 l/m 10,8 km/h (2 Bft) 0 min 10,8 km/h (2 Bft)
19.03.2010 07:36 16,4 C 13,2 C 0,0 UV-I 0,0 C 45 % 59 % 0 % 1016,6 hPa 0,0 l/m 10,4 km/h (2 Bft) 0 min 7,9 km/h (2 Bft)
19.03.2010 07:38 16,4 C 13,2 C 0,0 UV-I 0,0 C 45 % 59 % 0 % 1016,6 hPa 0,0 l/m 10,8 km/h (2 Bft) 0 min 15,6 km/h (3 Bft)
19.03.2010 07:42 16,4 C 13,2 C 0,0 UV-I 0,0 C 45 % 60 % 0 % 1016,6 hPa 0,0 l/m 10,0 km/h (2 Bft) 0 min 7,5 km/h (2 Bft)
19.03.2010 07:44 16,4 C 13,2 C 0,0 UV-I 0,0 C 45 % 60 % 0 % 1016,6 hPa 0,0 l/m 10,0 km/h (2 Bft) 0 min 6,3 km/h (2 Bft)
19.03.2010 07:50 16,4 C 13,1 C 0,0 UV-I 0,0 C 45 % 60 % 0 % 1016,6 hPa 0,0 l/m 8,4 km/h (2 Bft) 0 min 8,7 km/h (2 Bft)
19.03.2010 07:52 16,4 C 13,1 C 0,0 UV-I 0,0 C 45 % 60 % 0 % 1016,8 hPa 0,0 l/m 9,2 km/h (2 Bft) 0 min 10,3 km/h (2 Bft)
19.03.2010 07:54 16,4 C 13,2 C 0,0 UV-I 0,0 C 45 % 61 % 0 % 1016,8 hPa 0,0 l/m 9,6 km/h (2 Bft) 0 min 5,1 km/h (1 Bft)
19.03.2010 07:56 16,4 C 13,2 C 0,0 UV-I 0,0 C 45 % 61 % 0 % 1016,8 hPa 0,0 l/m 10,0 km/h (2 Bft) 0 min 10,8 km/h (2 Bft)
19.03.2010 07:58 16,4 C 13,2 C 0,0 UV-I 0,0 C 45 % 61 % 0 % 1016,8 hPa 0,0 l/m 10,8 km/h (2 Bft) 0 min 8,7 km/h (2 Bft)
19.03.2010 08:00 16,4 C 13,1 C 0,0 UV-I 0,0 C 46 % 62 % 0 % 1016,8 hPa 0,0 l/m 10,4 km/h (2 Bft) 0 min 7,7 km/h (2 Bft)
19.03.2010 08:02 16,5 C 13,1 C 0,0 UV-I 0,0 C 46 % 63 % 0 % 1016,8 hPa 0,0 l/m 11,2 km/h (2 Bft) 0 min 9,1 km/h (2 Bft)
19.03.2010 08:08 16,5 C 13,1 C 0,0 UV-I 0,0 C 46 % 65 % 0 % 1016,8 hPa 0,0 l/m 12,8 km/h (3 Bft) 0 min 20,2 km/h (4 Bft)
19.03.2010 08:12 16,5 C 13,0 C 0,0 UV-I 0,0 C 46 % 66 % 0 % 1017,0 hPa 0,0 l/m 14,1 km/h (3 Bft) 0 min 11,1 km/h (2 Bft)
19.03.2010 08:14 16,5 C 12,8 C 0,0 UV-I 0,0 C 46 % 67 % 0 % 1017,0 hPa 0,0 l/m 14,5 km/h (3 Bft) 0 min 16,4 km/h (3 Bft)
19.03.2010 08:16 16,5 C 12,9 C 0,0 UV-I 0,0 C 46 % 68 % 0 % 1017,0 hPa 0,0 l/m 13,7 km/h (3 Bft) 0 min 5,1 km/h (1 Bft)
19.03.2010 08:18 16,5 C 12,8 C 0,0 UV-I 0,0 C 47 % 68 % 0 % 1017,0 hPa 0,0 l/m 13,3 km/h (3 Bft) 0 min 16,6 km/h (3 Bft)
19.03.2010 08:20 16,5 C 12,7 C 0,0 UV-I 0,0 C 47 % 69 % 0 % 1017,0 hPa 0,0 l/m 12,8 km/h (3 Bft) 0 min 14,2 km/h (3 Bft)
19.03.2010 08:22 16,5 C 12,6 C 0,0 UV-I 0,0 C 47 % 69 % 0 % 1017,0 hPa 0,0 l/m 12,0 km/h (2 Bft) 0 min 6,5 km/h (2 Bft)
19.03.2010 08:26 16,5 C 12,6 C 0,0 UV-I 0,0 C 47 % 69 % 0 % 1017,0 hPa 0,0 l/m 10,4 km/h (2 Bft) 0 min 13,0 km/h (3 Bft)
19.03.2010 08:28 16,5 C 12,5 C 0,0 UV-I 0,0 C 47 % 70 % 0 % 1017,0 hPa 0,0 l/m 9,6 km/h (2 Bft) 0 min 5,1 km/h (1 Bft)
19.03.2010 08:30 16,5 C 12,5 C 0,1 UV-I 0,0 C 47 % 70 % 0 % 1017,0 hPa 0,0 l/m 8,4 km/h (2 Bft) 0 min 5,1 km/h (1 Bft)
19.03.2010 08:32 16,5 C 12,5 C 0,1 UV-I 0,0 C 48 % 70 % 0 % 1017,0 hPa 0,0 l/m 8,4 km/h (2 Bft) 0 min 14,2 km/h (3 Bft)
19.03.2010 08:34 16,5 C 12,4 C 0,0 UV-I 0,0 C 47 % 70 % 0 % 1017,0 hPa 0,0 l/m 9,2 km/h (2 Bft) 0 min 11,3 km/h (2 Bft)
19.03.2010 08:36 16,5 C 12,4 C 0,0 UV-I 0,0 C 47 % 71 % 0 % 1017,0 hPa 0,0 l/m 8,4 km/h (2 Bft) 0 min 4,6 km/h (1 Bft)
19.03.2010 08:38 16,5 C 12,4 C 0,0 UV-I 0,0 C 48 % 71 % 0 % 1017,0 hPa 0,0 l/m 8,4 km/h (2 Bft) 0 min 2,9 km/h (1 Bft)
19.03.2010 08:40 16,5 C 12,4 C 0,0 UV-I 0,0 C 48 % 71 % 0 % 1017,0 hPa 0,0 l/m 10,0 km/h (2 Bft) 0 min 14,4 km/h (3 Bft)
19.03.2010 08:42 16,5 C 12,5 C 0,0 UV-I 0,0 C 48 % 71 % 0 % 1017,0 hPa 0,0 l/m 9,6 km/h (2 Bft) 0 min 11,8 km/h (2 Bft)
19.03.2010 08:44 16,5 C 12,4 C 0,0 UV-I 0,0 C 48 % 71 % 0 % 1017,0 hPa 0,0 l/m 9,6 km/h (2 Bft) 0 min 6,7 km/h (2 Bft)
19.03.2010 08:46 16,5 C 12,4 C 0,0 UV-I 0,0 C 48 % 71 % 0 % 1017,0 hPa 0,0 l/m 10,4 km/h (2 Bft) 0 min 9,4 km/h (2 Bft)
19.03.2010 08:48 16,5 C 12,5 C 0,0 UV-I 0,0 C 48 % 72 % 0 % 1017,0 hPa 0,0 l/m 10,8 km/h (2 Bft) 0 min 5,5 km/h (1 Bft)
19.03.2010 08:50 16,5 C 12,4 C 0,0 UV-I 0,0 C 48 % 72 % 0 % 1017,0 hPa 0,0 l/m 11,6 km/h (2 Bft) 0 min 6,0 km/h (2 Bft)
19.03.2010 08:54 16,4 C 12,3 C 0,0 UV-I 0,0 C 48 % 72 % 0 % 1016,9 hPa 0,0 l/m 10,0 km/h (2 Bft) 0 min 18,0 km/h (3 Bft)
19.03.2010 08:56 16,5 C 12,3 C 0,0 UV-I 0,0 C 48 % 72 % 0 % 1016,9 hPa 0,0 l/m 8,8 km/h (2 Bft) 0 min 6,7 km/h (2 Bft)
19.03.2010 08:58 16,5 C 12,3 C 0,0 UV-I 0,0 C 48 % 72 % 0 % 1016,9 hPa 0,0 l/m 8,4 km/h (2 Bft) 0 min 9,4 km/h (2 Bft)
19.03.2010 09:00 16,5 C 12,3 C 0,1 UV-I 0,0 C 48 % 72 % 0 % 1016,9 hPa 0,0 l/m 8,0 km/h (2 Bft) 0 min 3,4 km/h (1 Bft)
19.03.2010 09:02 16,5 C 12,3 C 0,1 UV-I 0,0 C 48 % 72 % 0 % 1016,9 hPa 0,0 l/m 7,2 km/h (2 Bft) 0 min 7,0 km/h (2 Bft)
19.03.2010 09:04 16,5 C 12,3 C 0,5 UV-I 0,0 C 48 % 72 % 0 % 1016,9 hPa 0,0 l/m 7,2 km/h (2 Bft) 0 min 10,8 km/h (2 Bft)
19.03.2010 09:06 16,5 C 12,3 C 0,5 UV-I 0,0 C 48 % 72 % 0 % 1016,9 hPa 0,0 l/m 6,4 km/h (2 Bft) 0 min 4,6 km/h (1 Bft)
19.03.2010 09:10 16,5 C 12,3 C 0,4 UV-I 0,0 C 48 % 72 % 0 % 1016,9 hPa 0,0 l/m 6,4 km/h (2 Bft) 0 min 7,5 km/h (2 Bft)
19.03.2010 09:12 16,5 C 12,4 C 0,4 UV-I 0,0 C 49 % 72 % 0 % 1017,2 hPa 0,0 l/m 6,8 km/h (2 Bft) 0 min 3,8 km/h (1 Bft)
19.03.2010 09:14 16,5 C 12,4 C 1,1 UV-I 0,2 C 49 % 72 % 6 % 1017,2 hPa 0,0 l/m 6,4 km/h (2 Bft) 0 min 0,0 km/h (0 Bft)
19.03.2010 09:16 16,5 C 12,4 C 1,1 UV-I 0,4 C 49 % 72 % 11 % 1017,2 hPa 0,0 l/m 5,6 km/h (1 Bft) 0 min 5,5 km/h (1 Bft)
19.03.2010 09:22 16,5 C 12,5 C 1,0 UV-I 0,8 C 49 % 71 % 23 % 1017,2 hPa 0,0 l/m 6,0 km/h (2 Bft) 0 min 6,0 km/h (2 Bft)
19.03.2010 09:24 16,5 C 12,5 C 0,7 UV-I 0,8 C 49 % 71 % 23 % 1017,2 hPa 0,0 l/m 6,4 km/h (2 Bft) 0 min 5,5 km/h (1 Bft)
19.03.2010 09:28 16,6 C 12,7 C 0,7 UV-I 0,8 C 49 % 71 % 23 % 1017,2 hPa 0,0 l/m 7,2 km/h (2 Bft) 0 min 9,1 km/h (2 Bft)
19.03.2010 09:30 16,6 C 12,7 C 0,9 UV-I 0,9 C 49 % 70 % 26 % 1017,2 hPa 0,0 l/m 8,0 km/h (2 Bft) 0 min 14,0 km/h (3 Bft)
19.03.2010 09:32 16,6 C 12,7 C 0,9 UV-I 1,0 C 49 % 70 % 29 % 1017,1 hPa 0,0 l/m 8,0 km/h (2 Bft) 0 min 3,8 km/h (1 Bft)
19.03.2010 09:34 16,6 C 12,7 C 0,4 UV-I 1,0 C 49 % 69 % 29 % 1017,1 hPa 0,0 l/m 8,4 km/h (2 Bft) 0 min 6,3 km/h (2 Bft)
19.03.2010 09:36 16,6 C 12,8 C 0,4 UV-I 0,9 C 49 % 69 % 26 % 1017,1 hPa 0,0 l/m 8,0 km/h (2 Bft) 0 min 4,3 km/h (1 Bft)
19.03.2010 09:38 16,6 C 12,9 C 0,4 UV-I 0,9 C 49 % 69 % 26 % 1017,1 hPa 0,0 l/m 7,6 km/h (2 Bft) 0 min 5,5 km/h (1 Bft)
19.03.2010 09:40 16,6 C 12,8 C 0,5 UV-I 1,1 C 49 % 69 % 31 % 1017,1 hPa 0,0 l/m 7,6 km/h (2 Bft) 0 min 6,0 km/h (2 Bft)
19.03.2010 09:42 16,6 C 12,9 C 0,5 UV-I 1,0 C 49 % 69 % 29 % 1017,1 hPa 0,0 l/m 7,6 km/h (2 Bft) 0 min 6,0 km/h (2 Bft)
19.03.2010 09:44 16,6 C 12,9 C 0,6 UV-I 1,1 C 49 % 69 % 31 % 1017,1 hPa 0,0 l/m 7,6 km/h (2 Bft) 0 min 6,7 km/h (2 Bft)
19.03.2010 09:48 16,7 C 13,0 C 0,6 UV-I 1,2 C 49 % 69 % 34 % 1017,1 hPa 0,0 l/m 8,8 km/h (2 Bft) 0 min 5,8 km/h (2 Bft)
19.03.2010 09:50 16,7 C 13,0 C 0,4 UV-I 1,2 C 49 % 69 % 34 % 1017,1 hPa 0,0 l/m 8,4 km/h (2 Bft) 0 min 3,6 km/h (1 Bft)
19.03.2010 09:54 16,7 C 13,1 C 0,4 UV-I 1,1 C 49 % 68 % 31 % 1017,2 hPa 0,0 l/m 8,4 km/h (2 Bft) 0 min 6,3 km/h (2 Bft)
19.03.2010 09:56 16,7 C 13,2 C 0,4 UV-I 1,1 C 49 % 68 % 31 % 1017,2 hPa 0,0 l/m 8,4 km/h (2 Bft) 0 min 7,0 km/h (2 Bft)
19.03.2010 09:58 16,7 C 13,2 C 0,4 UV-I 1,0 C 49 % 68 % 29 % 1017,2 hPa 0,0 l/m 8,4 km/h (2 Bft) 0 min 11,8 km/h (2 Bft)
19.03.2010 10:00 16,7 C 13,2 C 0,1 UV-I 1,0 C 49 % 68 % 29 % 1017,2 hPa 0,0 l/m 8,8 km/h (2 Bft) 0 min 10,3 km/h (2 Bft)
19.03.2010 10:06 16,8 C 13,3 C 0,3 UV-I 0,9 C 49 % 67 % 26 % 1017,2 hPa 0,0 l/m 8,4 km/h (2 Bft) 0 min 8,2 km/h (2 Bft)
19.03.2010 10:12 16,8 C 13,3 C 0,8 UV-I 1,0 C 49 % 67 % 29 % 1017,5 hPa 0,0 l/m 6,0 km/h (2 Bft) 0 min 5,3 km/h (1 Bft)
19.03.2010 10:14 16,8 C 13,3 C 0,3 UV-I 1,0 C 49 % 67 % 29 % 1017,5 hPa 0,0 l/m 5,6 km/h (1 Bft) 0 min 5,8 km/h (2 Bft)
19.03.2010 10:18 16,8 C 13,5 C 0,3 UV-I 0,8 C 49 % 67 % 23 % 1017,5 hPa 0,0 l/m 6,8 km/h (2 Bft) 0 min 9,1 km/h (2 Bft)
19.03.2010 10:22 16,8 C 13,6 C 0,2 UV-I 0,7 C 49 % 67 % 20 % 1017,5 hPa 0,0 l/m 8,8 km/h (2 Bft) 0 min 12,3 km/h (3 Bft)
19.03.2010 10:24 16,8 C 13,6 C 0,2 UV-I 0,6 C 49 % 67 % 17 % 1017,5 hPa 0,0 l/m 8,8 km/h (2 Bft) 0 min 8,4 km/h (2 Bft)
19.03.2010 10:26 16,8 C 13,6 C 0,2 UV-I 0,6 C 49 % 67 % 17 % 1017,5 hPa 0,0 l/m 9,6 km/h (2 Bft) 0 min 6,5 km/h (2 Bft)
19.03.2010 10:28 16,8 C 13,6 C 0,2 UV-I 0,6 C 49 % 67 % 17 % 1017,5 hPa 0,0 l/m 9,2 km/h (2 Bft) 0 min 5,8 km/h (2 Bft)
19.03.2010 10:30 16,8 C 13,7 C 0,6 UV-I 0,6 C 49 % 67 % 17 % 1017,5 hPa 0,0 l/m 8,8 km/h (2 Bft) 0 min 10,8 km/h (2 Bft)
19.03.2010 10:38 16,8 C 13,6 C 0,1 UV-I 0,6 C 49 % 67 % 17 % 1017,3 hPa 0,0 l/m 7,6 km/h (2 Bft) 0 min 8,7 km/h (2 Bft)
19.03.2010 10:40 16,8 C 13,6 C 0,1 UV-I 0,5 C 49 % 67 % 14 % 1017,3 hPa 0,0 l/m 7,2 km/h (2 Bft) 0 min 9,9 km/h (2 Bft)
19.03.2010 10:44 16,8 C 13,7 C 0,4 UV-I 0,5 C 49 % 67 % 14 % 1017,3 hPa 0,0 l/m 7,2 km/h (2 Bft) 0 min 11,8 km/h (2 Bft)
19.03.2010 10:48 16,8 C 13,9 C 0,4 UV-I 0,5 C 49 % 67 % 14 % 1017,3 hPa 0,0 l/m 8,0 km/h (2 Bft) 0 min 12,5 km/h (3 Bft)
19.03.2010 10:50 16,8 C 13,9 C 0,5 UV-I 0,7 C 49 % 67 % 20 % 1017,3 hPa 0,0 l/m 8,4 km/h (2 Bft) 0 min 4,8 km/h (1 Bft)
19.03.2010 10:52 16,9 C 13,8 C 0,5 UV-I 0,8 C 49 % 67 % 23 % 1017,2 hPa 0,0 l/m 8,4 km/h (2 Bft) 0 min 5,1 km/h (1 Bft)
19.03.2010 10:54 16,8 C 13,9 C 0,2 UV-I 0,7 C 49 % 66 % 20 % 1017,2 hPa 0,0 l/m 9,6 km/h (2 Bft) 0 min 6,0 km/h (2 Bft)
19.03.2010 10:56 16,9 C 13,9 C 0,2 UV-I 0,7 C 49 % 66 % 20 % 1017,2 hPa 0,0 l/m 8,0 km/h (2 Bft) 0 min 0,0 km/h (0 Bft)
19.03.2010 11:00 16,9 C 14,0 C 0,7 UV-I 0,8 C 49 % 66 % 23 % 1017,2 hPa 0,0 l/m 7,6 km/h (2 Bft) 0 min 10,1 km/h (2 Bft)
19.03.2010 11:02 16,9 C 14,0 C 0,7 UV-I 0,9 C 49 % 66 % 26 % 1017,2 hPa 0,0 l/m 7,2 km/h (2 Bft) 0 min 3,1 km/h (1 Bft)
19.03.2010 11:10 16,9 C 14,1 C 0,5 UV-I 0,9 C 49 % 65 % 26 % 1017,2 hPa 0,0 l/m 11,2 km/h (2 Bft) 0 min 15,2 km/h (3 Bft)
19.03.2010 11:14 16,9 C 14,3 C 0,3 UV-I 0,7 C 49 % 65 % 20 % 1017,5 hPa 0,0 l/m 12,0 km/h (2 Bft) 0 min 20,9 km/h (4 Bft)
19.03.2010 11:16 16,9 C 14,3 C 0,3 UV-I 0,7 C 49 % 65 % 20 % 1017,5 hPa 0,0 l/m 12,4 km/h (3 Bft) 0 min 13,5 km/h (3 Bft)
19.03.2010 11:18 16,9 C 14,3 C 0,3 UV-I 0,7 C 49 % 65 % 20 % 1017,5 hPa 0,0 l/m 11,2 km/h (2 Bft) 0 min 7,5 km/h (2 Bft)
19.03.2010 11:20 16,9 C 14,3 C 0,6 UV-I 0,7 C 49 % 65 % 20 % 1017,5 hPa 0,0 l/m 10,8 km/h (2 Bft) 0 min 5,3 km/h (1 Bft)
19.03.2010 11:24 16,9 C 14,3 C 1,0 UV-I 1,0 C 49 % 66 % 29 % 1017,5 hPa 0,0 l/m 8,8 km/h (2 Bft) 0 min 4,8 km/h (1 Bft)
19.03.2010 11:26 17,0 C 14,4 C 1,0 UV-I 1,1 C 49 % 65 % 31 % 1017,5 hPa 0,0 l/m 8,4 km/h (2 Bft) 0 min 8,4 km/h (2 Bft)
19.03.2010 11:28 17,0 C 14,5 C 1,0 UV-I 1,2 C 49 % 65 % 34 % 1017,5 hPa 0,0 l/m 7,6 km/h (2 Bft) 0 min 5,1 km/h (1 Bft)
19.03.2010 11:30 17,0 C 14,4 C 2,1 UV-I 1,6 C 49 % 65 % 46 % 1017,5 hPa 0,0 l/m 8,0 km/h (2 Bft) 0 min 7,7 km/h (2 Bft)
19.03.2010 11:36 17,0 C 14,7 C 1,4 UV-I 2,2 C 49 % 65 % 63 % 1017,7 hPa 0,0 l/m 9,2 km/h (2 Bft) 0 min 12,5 km/h (3 Bft)
19.03.2010 11:40 17,1 C 14,8 C 2,9 UV-I 2,7 C 49 % 65 % 77 % 1017,7 hPa 0,0 l/m 9,6 km/h (2 Bft) 0 min 15,6 km/h (3 Bft)
19.03.2010 11:44 17,1 C 15,1 C 2,7 UV-I 2,7 C 49 % 64 % 77 % 1017,7 hPa 0,0 l/m 11,6 km/h (2 Bft) 0 min 14,9 km/h (3 Bft)
19.03.2010 11:48 17,2 C 15,1 C 2,7 UV-I 2,8 C 49 % 64 % 80 % 1017,7 hPa 0,0 l/m 12,8 km/h (3 Bft) 0 min 9,4 km/h (2 Bft)
19.03.2010 11:50 17,2 C 15,3 C 4,7 UV-I 2,9 C 50 % 64 % 83 % 1017,7 hPa 0,0 l/m 13,3 km/h (3 Bft) 2 min 7,0 km/h (2 Bft)
19.03.2010 11:53 17,2 C 15,5 C 10,6 UV-I 4,2 C 49 % 63 % 100 % 1017,6 hPa 0,0 l/m 13,3 km/h (3 Bft) 2 min 24,1 km/h (4 Bft)
19.03.2010 11:58 17,3 C 15,8 C 9,2 UV-I 4,9 C 49 % 61 % 100 % 1017,6 hPa 0,0 l/m 16,5 km/h (3 Bft) 2 min 16,4 km/h (3 Bft)
19.03.2010 12:03 17,3 C 15,9 C 9,2 UV-I 5,0 C 49 % 61 % 100 % 1017,6 hPa 0,0 l/m 16,9 km/h (3 Bft) 2 min 14,9 km/h (3 Bft)
19.03.2010 12:08 17,4 C 16,3 C 10,6 UV-I 5,5 C 49 % 61 % 100 % 1017,6 hPa 0,0 l/m 13,3 km/h (3 Bft) 2 min 7,2 km/h (2 Bft)
19.03.2010 12:13 17,4 C 16,5 C 10,2 UV-I 5,5 C 49 % 60 % 100 % 1017,2 hPa 0,0 l/m 12,8 km/h (3 Bft) 2 min 13,7 km/h (3 Bft)
19.03.2010 12:18 17,4 C 16,6 C 8,5 UV-I 5,3 C 49 % 60 % 100 % 1017,2 hPa 0,0 l/m 14,1 km/h (3 Bft) 2 min 9,6 km/h (2 Bft)
19.03.2010 12:23 17,5 C 16,7 C 9,1 UV-I 4,9 C 49 % 60 % 100 % 1017,2 hPa 0,0 l/m 14,5 km/h (3 Bft) 2 min 9,9 km/h (2 Bft)
19.03.2010 12:28 17,6 C 16,9 C 11,0 UV-I 5,5 C 49 % 59 % 100 % 1017,2 hPa 0,0 l/m 13,3 km/h (3 Bft) 2 min 10,8 km/h (2 Bft)
19.03.2010 12:33 17,6 C 17,1 C 10,8 UV-I 5,3 C 49 % 58 % 100 % 1017,4 hPa 0,0 l/m 15,3 km/h (3 Bft) 2 min 13,5 km/h (3 Bft)
19.03.2010 12:38 17,7 C 17,3 C 9,0 UV-I 5,2 C 49 % 58 % 100 % 1017,4 hPa 0,0 l/m 16,5 km/h (3 Bft) 2 min 22,6 km/h (4 Bft)
19.03.2010 12:43 17,8 C 17,5 C 6,4 UV-I 4,3 C 49 % 58 % 100 % 1017,4 hPa 0,0 l/m 15,3 km/h (3 Bft) 2 min 10,8 km/h (2 Bft)
19.03.2010 12:48 17,8 C 17,5 C 3,9 UV-I 3,2 C 49 % 58 % 91 % 1017,4 hPa 0,0 l/m 14,5 km/h (3 Bft) 2 min 11,8 km/h (2 Bft)
19.03.2010 12:53 17,9 C 17,4 C 7,1 UV-I 3,6 C 49 % 58 % 100 % 1017,3 hPa 0,0 l/m 13,3 km/h (3 Bft) 2 min 7,0 km/h (2 Bft)
19.03.2010 12:58 18,0 C 17,5 C 5,7 UV-I 3,4 C 49 % 58 % 97 % 1017,3 hPa 0,0 l/m 14,5 km/h (3 Bft) 2 min 9,4 km/h (2 Bft)
19.03.2010 13:03 18,0 C 17,4 C 2,9 UV-I 2,7 C 49 % 58 % 77 % 1017,3 hPa 0,0 l/m 15,7 km/h (3 Bft) 0 min 9,6 km/h (2 Bft)
19.03.2010 13:08 18,0 C 17,3 C 3,1 UV-I 2,1 C 49 % 59 % 60 % 1017,3 hPa 0,0 l/m 14,9 km/h (3 Bft) 0 min 8,4 km/h (2 Bft)
19.03.2010 13:13 18,1 C 17,2 C 3,1 UV-I 1,9 C 49 % 59 % 54 % 1016,6 hPa 0,0 l/m 12,8 km/h (3 Bft) 0 min 7,2 km/h (2 Bft)
19.03.2010 13:18 18,1 C 17,2 C 2,4 UV-I 1,3 C 49 % 59 % 37 % 1016,6 hPa 0,0 l/m 16,1 km/h (3 Bft) 0 min 10,3 km/h (2 Bft)
19.03.2010 13:23 18,2 C 17,1 C 3,0 UV-I 1,0 C 49 % 59 % 29 % 1016,6 hPa 0,0 l/m 15,3 km/h (3 Bft) 0 min 8,9 km/h (2 Bft)
19.03.2010 13:28 18,2 C 17,2 C 9,0 UV-I 2,4 C 49 % 59 % 69 % 1016,6 hPa 0,0 l/m 12,8 km/h (3 Bft) 0 min 11,1 km/h (2 Bft)
19.03.2010 13:33 18,3 C 17,4 C 9,3 UV-I 3,7 C 49 % 59 % 100 % 1018,1 hPa 0,0 l/m 11,2 km/h (2 Bft) 2 min 5,8 km/h (2 Bft)
19.03.2010 13:38 18,4 C 17,9 C 6,0 UV-I 4,6 C 49 % 57 % 100 % 1018,1 hPa 0,0 l/m 10,4 km/h (2 Bft) 2 min 11,5 km/h (2 Bft)
19.03.2010 13:43 18,5 C 17,9 C 4,7 UV-I 3,9 C 49 % 58 % 100 % 1018,1 hPa 0,0 l/m 10,0 km/h (2 Bft) 2 min 6,5 km/h (2 Bft)
19.03.2010 13:48 18,5 C 18,0 C 7,6 UV-I 3,7 C 49 % 58 % 100 % 1018,1 hPa 0,0 l/m 11,2 km/h (2 Bft) 2 min 7,0 km/h (2 Bft)
19.03.2010 13:53 18,6 C 18,1 C 4,9 UV-I 4,0 C 49 % 58 % 100 % 1018,9 hPa 0,0 l/m 10,4 km/h (2 Bft) 2 min 12,8 km/h (3 Bft)
19.03.2010 13:58 18,6 C 18,2 C 4,4 UV-I 3,2 C 48 % 57 % 91 % 1018,9 hPa 0,0 l/m 10,8 km/h (2 Bft) 2 min 8,4 km/h (2 Bft)
19.03.2010 14:03 18,6 C 18,2 C 4,0 UV-I 2,8 C 48 % 57 % 80 % 1018,9 hPa 0,0 l/m 12,4 km/h (3 Bft) 0 min 17,1 km/h (3 Bft)
19.03.2010 14:08 18,7 C 18,2 C 3,8 UV-I 2,3 C 48 % 57 % 66 % 1018,9 hPa 0,0 l/m 13,3 km/h (3 Bft) 0 min 7,7 km/h (2 Bft)
19.03.2010 14:13 18,7 C 18,3 C 3,1 UV-I 2,0 C 48 % 58 % 57 % 1017,6 hPa 0,0 l/m 13,3 km/h (3 Bft) 0 min 5,8 km/h (2 Bft)
19.03.2010 14:18 18,6 C 18,2 C 1,9 UV-I 1,6 C 48 % 58 % 46 % 1017,6 hPa 0,0 l/m 12,4 km/h (3 Bft) 0 min 7,9 km/h (2 Bft)
19.03.2010 14:23 18,6 C 18,0 C 2,1 UV-I 1,5 C 48 % 59 % 43 % 1017,6 hPa 0,0 l/m 12,8 km/h (3 Bft) 0 min 7,2 km/h (2 Bft)
19.03.2010 14:28 18,6 C 18,3 C 5,2 UV-I 1,8 C 49 % 59 % 51 % 1017,6 hPa 0,0 l/m 12,8 km/h (3 Bft) 0 min 8,4 km/h (2 Bft)
19.03.2010 14:33 18,7 C 18,4 C 7,9 UV-I 2,8 C 49 % 60 % 80 % 1016,8 hPa 0,0 l/m 12,4 km/h (3 Bft) 0 min 6,7 km/h (2 Bft)
19.03.2010 14:38 18,8 C 18,7 C 6,4 UV-I 3,8 C 49 % 60 % 100 % 1016,8 hPa 0,0 l/m 10,4 km/h (2 Bft) 2 min 6,7 km/h (2 Bft)
19.03.2010 14:43 18,8 C 18,8 C 5,4 UV-I 3,9 C 49 % 58 % 100 % 1016,8 hPa 0,0 l/m 9,6 km/h (2 Bft) 2 min 8,7 km/h (2 Bft)
19.03.2010 14:48 18,9 C 18,9 C 5,6 UV-I 3,9 C 49 % 58 % 100 % 1016,8 hPa 0,0 l/m 9,2 km/h (2 Bft) 2 min 10,6 km/h (2 Bft)
19.03.2010 14:53 19,0 C 18,9 C 6,1 UV-I 3,9 C 49 % 58 % 100 % 1017,1 hPa 0,0 l/m 10,8 km/h (2 Bft) 2 min 12,3 km/h (3 Bft)
19.03.2010 14:58 19,0 C 18,9 C 4,3 UV-I 3,3 C 49 % 58 % 94 % 1017,1 hPa 0,0 l/m 12,8 km/h (3 Bft) 2 min 12,5 km/h (3 Bft)
19.03.2010 15:00 19,0 C 18,8 C 4,3 UV-I 3,2 C 49 % 58 % 91 % 1017,1 hPa 0,0 l/m 12,8 km/h (3 Bft) 2 min 13,0 km/h (3 Bft)
19.03.2010 15:02 19,0 C 18,8 C 4,3 UV-I 3,2 C 49 % 58 % 91 % 1017,1 hPa 0,0 l/m 12,8 km/h (3 Bft) 2 min 13,0 km/h (3 Bft)
19.03.2010 15:04 19,0 C 18,8 C 3,4 UV-I 3,1 C 49 % 58 % 89 % 1017,1 hPa 0,0 l/m 12,4 km/h (3 Bft) 2 min 6,7 km/h (2 Bft)
19.03.2010 15:06 19,0 C 18,9 C 3,4 UV-I 2,9 C 49 % 58 % 83 % 1017,1 hPa 0,0 l/m 11,6 km/h (2 Bft) 2 min 4,1 km/h (1 Bft)
19.03.2010 15:08 19,1 C 18,8 C 3,4 UV-I 2,8 C 50 % 59 % 80 % 1017,1 hPa 0,0 l/m 10,4 km/h (2 Bft) 0 min 3,6 km/h (1 Bft)
19.03.2010 15:10 19,1 C 18,9 C 2,4 UV-I 2,5 C 50 % 58 % 71 % 1017,1 hPa 0,0 l/m 10,0 km/h (2 Bft) 0 min 6,0 km/h (2 Bft)
19.03.2010 15:12 19,1 C 18,8 C 2,4 UV-I 2,5 C 50 % 58 % 71 % 1017,2 hPa 0,0 l/m 9,6 km/h (2 Bft) 0 min 15,9 km/h (3 Bft)
19.03.2010 15:14 19,1 C 18,9 C 2,2 UV-I 2,2 C 50 % 58 % 63 % 1017,2 hPa 0,0 l/m 8,0 km/h (2 Bft) 0 min 8,2 km/h (2 Bft)
19.03.2010 15:16 19,1 C 18,9 C 2,2 UV-I 2,0 C 50 % 58 % 57 % 1017,2 hPa 0,0 l/m 8,8 km/h (2 Bft) 0 min 12,3 km/h (3 Bft)
19.03.2010 15:18 19,1 C 18,9 C 2,2 UV-I 1,9 C 50 % 58 % 54 % 1017,2 hPa 0,0 l/m 10,0 km/h (2 Bft) 0 min 19,5 km/h (3 Bft)
19.03.2010 15:20 19,1 C 18,8 C 2,6 UV-I 1,9 C 50 % 58 % 54 % 1017,2 hPa 0,0 l/m 10,0 km/h (2 Bft) 0 min 2,9 km/h (1 Bft)
19.03.2010 15:22 19,1 C 18,8 C 2,6 UV-I 1,8 C 50 % 58 % 51 % 1017,2 hPa 0,0 l/m 10,8 km/h (2 Bft) 0 min 6,3 km/h (2 Bft)
19.03.2010 15:24 19,1 C 18,9 C 1,6 UV-I 1,7 C 50 % 58 % 49 % 1017,2 hPa 0,0 l/m 10,8 km/h (2 Bft) 0 min 14,9 km/h (3 Bft)
19.03.2010 15:26 19,1 C 18,9 C 1,6 UV-I 1,5 C 50 % 58 % 43 % 1017,2 hPa 0,0 l/m 11,6 km/h (2 Bft) 0 min 11,1 km/h (2 Bft)
19.03.2010 15:28 19,1 C 18,9 C 1,6 UV-I 1,3 C 50 % 58 % 37 % 1017,2 hPa 0,0 l/m 11,2 km/h (2 Bft) 0 min 4,3 km/h (1 Bft)
19.03.2010 15:30 19,0 C 18,8 C 1,2 UV-I 1,2 C 50 % 58 % 34 % 1017,2 hPa 0,0 l/m 11,2 km/h (2 Bft) 0 min 12,5 km/h (3 Bft)
19.03.2010 15:32 19,0 C 18,8 C 1,2 UV-I 1,0 C 49 % 58 % 29 % 1017,0 hPa 0,0 l/m 11,6 km/h (2 Bft) 0 min 9,1 km/h (2 Bft)
19.03.2010 15:34 19,0 C 18,8 C 2,0 UV-I 1,0 C 50 % 58 % 29 % 1017,0 hPa 0,0 l/m 12,4 km/h (3 Bft) 0 min 7,9 km/h (2 Bft)
19.03.2010 15:36 19,0 C 18,8 C 2,0 UV-I 1,1 C 50 % 59 % 31 % 1017,0 hPa 0,0 l/m 11,6 km/h (2 Bft) 0 min 8,9 km/h (2 Bft)
19.03.2010 15:38 19,0 C 18,8 C 2,0 UV-I 1,5 C 50 % 59 % 43 % 1017,0 hPa 0,0 l/m 11,2 km/h (2 Bft) 0 min 7,7 km/h (2 Bft)
19.03.2010 15:40 19,0 C 18,8 C 2,5 UV-I 1,5 C 50 % 59 % 43 % 1017,0 hPa 0,0 l/m 12,0 km/h (2 Bft) 0 min 6,3 km/h (2 Bft)
19.03.2010 15:42 19,0 C 18,7 C 2,5 UV-I 1,3 C 50 % 59 % 37 % 1017,0 hPa 0,0 l/m 12,4 km/h (3 Bft) 0 min 6,3 km/h (2 Bft)
19.03.2010 15:44 19,0 C 18,7 C 0,4 UV-I 1,0 C 50 % 59 % 29 % 1017,0 hPa 0,0 l/m 12,4 km/h (3 Bft) 0 min 8,2 km/h (2 Bft)
19.03.2010 15:46 19,0 C 18,7 C 0,4 UV-I 0,8 C 50 % 60 % 23 % 1017,0 hPa 0,0 l/m 11,6 km/h (2 Bft) 0 min 6,5 km/h (2 Bft)
19.03.2010 15:48 19,0 C 18,7 C 0,4 UV-I 0,6 C 50 % 60 % 17 % 1017,0 hPa 0,0 l/m 12,0 km/h (2 Bft) 0 min 10,6 km/h (2 Bft)
19.03.2010 15:50 18,9 C 18,7 C 0,1 UV-I 0,4 C 50 % 60 % 11 % 1017,0 hPa 0,0 l/m 10,8 km/h (2 Bft) 0 min 9,1 km/h (2 Bft)
19.03.2010 15:52 18,9 C 18,6 C 0,1 UV-I 0,3 C 50 % 59 % 9 % 1017,8 hPa 0,0 l/m 10,8 km/h (2 Bft) 0 min 7,0 km/h (2 Bft)
19.03.2010 15:54 18,9 C 18,5 C 0,1 UV-I 0,2 C 50 % 60 % 6 % 1017,8 hPa 0,0 l/m 10,8 km/h (2 Bft) 0 min 12,0 km/h (2 Bft)
19.03.2010 15:56 18,9 C 18,5 C 0,1 UV-I 0,1 C 50 % 60 % 3 % 1017,8 hPa 0,0 l/m 12,0 km/h (2 Bft) 0 min 11,1 km/h (2 Bft)
19.03.2010 15:58 18,9 C 18,5 C 0,1 UV-I 0,0 C 50 % 60 % 0 % 1017,8 hPa 0,0 l/m 12,8 km/h (3 Bft) 0 min 7,0 km/h (2 Bft)
19.03.2010 16:00 18,8 C 18,4 C 0,0 UV-I 0,0 C 50 % 61 % 0 % 1017,8 hPa 0,0 l/m 11,6 km/h (2 Bft) 0 min 9,4 km/h (2 Bft)
19.03.2010 16:02 18,8 C 18,3 C 0,0 UV-I 0,0 C 50 % 60 % 0 % 1017,8 hPa 0,0 l/m 12,4 km/h (3 Bft) 0 min 20,7 km/h (4 Bft)
19.03.2010 16:04 18,8 C 18,3 C 0,6 UV-I 0,0 C 50 % 61 % 0 % 1017,8 hPa 0,0 l/m 12,8 km/h (3 Bft) 0 min 11,8 km/h (2 Bft)
19.03.2010 16:08 18,8 C 18,2 C 0,6 UV-I 0,0 C 51 % 61 % 0 % 1017,8 hPa 0,0 l/m 12,4 km/h (3 Bft) 0 min 12,3 km/h (3 Bft)
19.03.2010 16:10 18,8 C 18,3 C 0,5 UV-I 0,0 C 51 % 61 % 0 % 1017,8 hPa 0,0 l/m 13,3 km/h (3 Bft) 0 min 7,5 km/h (2 Bft)
19.03.2010 16:12 18,7 C 18,1 C 0,5 UV-I 0,0 C 51 % 62 % 0 % 1015,9 hPa 0,0 l/m 14,1 km/h (3 Bft) 0 min 13,7 km/h (3 Bft)
19.03.2010 16:14 18,7 C 18,1 C 0,1 UV-I 0,0 C 51 % 61 % 0 % 1015,9 hPa 0,0 l/m 14,1 km/h (3 Bft) 0 min 12,0 km/h (2 Bft)
19.03.2010 16:16 18,7 C 18,1 C 0,1 UV-I 0,0 C 51 % 62 % 0 % 1015,9 hPa 0,0 l/m 14,5 km/h (3 Bft) 0 min 19,2 km/h (3 Bft)
19.03.2010 16:18 18,7 C 18,0 C 0,1 UV-I 0,0 C 51 % 62 % 0 % 1015,9 hPa 0,0 l/m 15,7 km/h (3 Bft) 0 min 16,4 km/h (3 Bft)
19.03.2010 16:20 18,6 C 18,0 C 0,6 UV-I 0,0 C 51 % 63 % 0 % 1015,9 hPa 0,0 l/m 15,7 km/h (3 Bft) 0 min 14,0 km/h (3 Bft)
19.03.2010 16:22 18,6 C 17,9 C 0,6 UV-I 0,0 C 52 % 63 % 0 % 1015,9 hPa 0,0 l/m 15,7 km/h (3 Bft) 0 min 10,1 km/h (2 Bft)
19.03.2010 16:24 18,6 C 17,9 C 0,4 UV-I 0,0 C 52 % 63 % 0 % 1015,9 hPa 0,0 l/m 15,3 km/h (3 Bft) 0 min 8,4 km/h (2 Bft)
19.03.2010 16:26 18,6 C 17,9 C 0,4 UV-I 0,0 C 52 % 63 % 0 % 1015,9 hPa 0,0 l/m 14,9 km/h (3 Bft) 0 min 10,8 km/h (2 Bft)
19.03.2010 16:28 18,6 C 17,8 C 0,4 UV-I 0,0 C 52 % 64 % 0 % 1015,9 hPa 0,0 l/m 12,8 km/h (3 Bft) 0 min 4,1 km/h (1 Bft)
19.03.2010 16:30 18,6 C 17,9 C 0,6 UV-I 0,0 C 52 % 64 % 0 % 1015,9 hPa 0,0 l/m 12,0 km/h (2 Bft) 0 min 10,8 km/h (2 Bft)
19.03.2010 16:32 18,6 C 17,9 C 0,6 UV-I 0,0 C 52 % 64 % 0 % 1015,8 hPa 0,0 l/m 10,4 km/h (2 Bft) 0 min 7,7 km/h (2 Bft)
19.03.2010 16:34 18,6 C 17,8 C 0,4 UV-I 0,0 C 52 % 64 % 0 % 1015,8 hPa 0,0 l/m 10,8 km/h (2 Bft) 0 min 14,0 km/h (3 Bft)
19.03.2010 16:36 18,5 C 17,7 C 0,4 UV-I 0,0 C 52 % 64 % 0 % 1015,8 hPa 0,0 l/m 11,2 km/h (2 Bft) 0 min 9,4 km/h (2 Bft)
19.03.2010 16:40 18,5 C 17,6 C 0,2 UV-I 0,0 C 52 % 64 % 0 % 1015,8 hPa 0,0 l/m 12,8 km/h (3 Bft) 0 min 15,2 km/h (3 Bft)
19.03.2010 16:42 18,5 C 17,6 C 0,2 UV-I 0,0 C 52 % 64 % 0 % 1015,8 hPa 0,0 l/m 12,8 km/h (3 Bft) 0 min 7,9 km/h (2 Bft)
19.03.2010 16:43 18,5 C 17,7 C 0,1 UV-I 0,0 C 52 % 64 % 0 % 1015,8 hPa 0,0 l/m 13,7 km/h (3 Bft) 0 min 14,4 km/h (3 Bft)
19.03.2010 16:47 18,4 C 17,5 C 0,1 UV-I 0,0 C 53 % 64 % 0 % 1015,8 hPa 0,0 l/m 14,1 km/h (3 Bft) 0 min 10,1 km/h (2 Bft)
19.03.2010 16:50 18,4 C 17,5 C 0,0 UV-I 0,0 C 53 % 65 % 0 % 1015,8 hPa 0,0 l/m 13,7 km/h (3 Bft) 0 min 10,3 km/h (2 Bft)
19.03.2010 16:52 18,4 C 17,5 C 0,0 UV-I 0,0 C 53 % 65 % 0 % 1015,7 hPa 0,0 l/m 12,8 km/h (3 Bft) 0 min 8,2 km/h (2 Bft)
19.03.2010 16:54 18,4 C 17,4 C 0,0 UV-I 0,0 C 53 % 65 % 0 % 1015,7 hPa 0,0 l/m 13,3 km/h (3 Bft) 0 min 12,3 km/h (3 Bft)
19.03.2010 16:56 18,4 C 17,5 C 0,0 UV-I 0,0 C 53 % 65 % 0 % 1015,7 hPa 0,0 l/m 12,4 km/h (3 Bft) 0 min 2,9 km/h (1 Bft)
19.03.2010 16:58 18,4 C 17,4 C 0,0 UV-I 0,0 C 53 % 65 % 0 % 1015,7 hPa 0,0 l/m 11,2 km/h (2 Bft) 0 min 4,8 km/h (1 Bft)
19.03.2010 17:00 18,4 C 17,3 C 0,0 UV-I 0,0 C 53 % 65 % 0 % 1015,7 hPa 0,0 l/m 10,0 km/h (2 Bft) 0 min 9,1 km/h (2 Bft)
19.03.2010 17:02 18,4 C 17,3 C 0,0 UV-I 0,0 C 53 % 65 % 0 % 1015,7 hPa 0,0 l/m 10,4 km/h (2 Bft) 0 min 9,1 km/h (2 Bft)
19.03.2010 17:04 18,4 C 17,3 C 0,0 UV-I 0,0 C 53 % 65 % 0 % 1015,7 hPa 0,0 l/m 10,4 km/h (2 Bft) 0 min 4,6 km/h (1 Bft)
19.03.2010 17:06 18,4 C 17,2 C 0,0 UV-I 0,0 C 53 % 65 % 0 % 1015,7 hPa 0,0 l/m 10,0 km/h (2 Bft) 0 min 7,5 km/h (2 Bft)
19.03.2010 17:08 18,4 C 17,3 C 0,0 UV-I 0,0 C 53 % 66 % 0 % 1015,7 hPa 0,0 l/m 9,2 km/h (2 Bft) 0 min 7,0 km/h (2 Bft)
19.03.2010 17:10 18,4 C 17,3 C 0,0 UV-I 0,0 C 53 % 66 % 0 % 1015,7 hPa 0,0 l/m 9,6 km/h (2 Bft) 0 min 4,1 km/h (1 Bft)
19.03.2010 17:12 18,4 C 17,3 C 0,0 UV-I 0,0 C 53 % 66 % 0 % 1015,4 hPa 0,0 l/m 9,2 km/h (2 Bft) 0 min 4,8 km/h (1 Bft)
19.03.2010 17:14 18,4 C 17,2 C 0,0 UV-I 0,0 C 53 % 66 % 0 % 1015,4 hPa 0,0 l/m 8,4 km/h (2 Bft) 0 min 4,8 km/h (1 Bft)
19.03.2010 17:16 18,4 C 17,3 C 0,0 UV-I 0,0 C 53 % 66 % 0 % 1015,4 hPa 0,0 l/m 7,6 km/h (2 Bft) 0 min 7,2 km/h (2 Bft)
19.03.2010 17:18 18,4 C 17,2 C 0,0 UV-I 0,0 C 53 % 66 % 0 % 1015,4 hPa 0,0 l/m 7,2 km/h (2 Bft) 0 min 8,9 km/h (2 Bft)
19.03.2010 17:20 18,4 C 17,1 C 0,0 UV-I 0,0 C 53 % 66 % 0 % 1015,4 hPa 0,0 l/m 8,0 km/h (2 Bft) 0 min 11,8 km/h (2 Bft)
19.03.2010 17:22 18,4 C 17,1 C 0,0 UV-I 0,0 C 53 % 66 % 0 % 1015,4 hPa 0,0 l/m 8,4 km/h (2 Bft) 0 min 11,1 km/h (2 Bft)
19.03.2010 17:24 18,2 C 17,0 C 0,0 UV-I 0,0 C 53 % 66 % 0 % 1015,4 hPa 0,0 l/m 9,6 km/h (2 Bft) 0 min 12,3 km/h (3 Bft)
19.03.2010 17:26 18,2 C 17,1 C 0,0 UV-I 0,0 C 53 % 66 % 0 % 1015,4 hPa 0,0 l/m 10,4 km/h (2 Bft) 0 min 5,5 km/h (1 Bft)
19.03.2010 17:28 18,2 C 17,1 C 0,0 UV-I 0,0 C 53 % 66 % 0 % 1015,4 hPa 0,0 l/m 10,4 km/h (2 Bft) 0 min 7,5 km/h (2 Bft)
19.03.2010 17:30 18,3 C 17,1 C 0,0 UV-I 0,0 C 53 % 66 % 0 % 1015,4 hPa 0,0 l/m 10,8 km/h (2 Bft) 0 min 11,3 km/h (2 Bft)
19.03.2010 17:32 18,3 C 17,1 C 0,0 UV-I 0,0 C 53 % 66 % 0 % 1015,2 hPa 0,0 l/m 11,2 km/h (2 Bft) 0 min 7,2 km/h (2 Bft)
19.03.2010 17:34 18,3 C 17,0 C 0,0 UV-I 0,0 C 53 % 67 % 0 % 1015,2 hPa 0,0 l/m 11,6 km/h (2 Bft) 0 min 22,1 km/h (4 Bft)
19.03.2010 17:36 18,3 C 16,9 C 0,0 UV-I 0,0 C 53 % 66 % 0 % 1015,2 hPa 0,0 l/m 12,0 km/h (2 Bft) 0 min 8,7 km/h (2 Bft)
19.03.2010 17:38 18,3 C 16,9 C 0,0 UV-I 0,0 C 53 % 66 % 0 % 1015,2 hPa 0,0 l/m 13,3 km/h (3 Bft) 0 min 13,0 km/h (3 Bft)
19.03.2010 17:40 18,3 C 16,9 C 0,0 UV-I 0,0 C 53 % 66 % 0 % 1015,2 hPa 0,0 l/m 13,7 km/h (3 Bft) 0 min 7,7 km/h (2 Bft)
19.03.2010 17:42 18,3 C 16,8 C 0,0 UV-I 0,0 C 53 % 66 % 0 % 1015,2 hPa 0,0 l/m 13,7 km/h (3 Bft) 0 min 9,1 km/h (2 Bft)
19.03.2010 17:44 18,2 C 16,9 C 0,0 UV-I 0,0 C 53 % 66 % 0 % 1015,2 hPa 0,0 l/m 14,5 km/h (3 Bft) 0 min 8,7 km/h (2 Bft)
19.03.2010 17:46 18,2 C 16,9 C 0,0 UV-I 0,0 C 53 % 66 % 0 % 1015,2 hPa 0,0 l/m 12,8 km/h (3 Bft) 0 min 14,0 km/h (3 Bft)
19.03.2010 17:48 18,2 C 16,9 C 0,0 UV-I 0,0 C 53 % 66 % 0 % 1015,2 hPa 0,0 l/m 14,1 km/h (3 Bft) 0 min 24,3 km/h (4 Bft)
19.03.2010 17:50 18,2 C 16,8 C 0,0 UV-I 0,0 C 53 % 66 % 0 % 1015,2 hPa 0,0 l/m 12,8 km/h (3 Bft) 0 min 9,4 km/h (2 Bft)
19.03.2010 17:52 18,2 C 16,8 C 0,0 UV-I 0,0 C 53 % 66 % 0 % 1014,6 hPa 0,0 l/m 13,3 km/h (3 Bft) 0 min 7,5 km/h (2 Bft)
19.03.2010 17:54 18,2 C 16,8 C 0,0 UV-I 0,0 C 53 % 66 % 0 % 1014,6 hPa 0,0 l/m 12,0 km/h (2 Bft) 0 min 6,3 km/h (2 Bft)
19.03.2010 17:56 18,2 C 16,8 C 0,0 UV-I 0,0 C 53 % 66 % 0 % 1014,6 hPa 0,0 l/m 11,2 km/h (2 Bft) 0 min 6,0 km/h (2 Bft)
19.03.2010 17:58 18,2 C 16,8 C 0,0 UV-I 0,0 C 53 % 67 % 0 % 1014,6 hPa 0,0 l/m 10,4 km/h (2 Bft) 0 min 3,1 km/h (1 Bft)
19.03.2010 18:00 18,2 C 16,7 C 0,0 UV-I 0,0 C 53 % 67 % 0 % 1014,6 hPa 0,0 l/m 8,4 km/h (2 Bft) 0 min 4,1 km/h (1 Bft)
19.03.2010 18:02 18,2 C 16,7 C 0,0 UV-I 0,0 C 53 % 66 % 0 % 1014,6 hPa 0,0 l/m 8,4 km/h (2 Bft) 0 min 11,8 km/h (2 Bft)
19.03.2010 18:04 18,2 C 16,7 C 0,0 UV-I 0,0 C 53 % 66 % 0 % 1014,6 hPa 0,0 l/m 9,6 km/h (2 Bft) 0 min 9,6 km/h (2 Bft)
19.03.2010 18:06 18,2 C 16,7 C 0,0 UV-I 0,0 C 53 % 66 % 0 % 1014,6 hPa 0,0 l/m 8,4 km/h (2 Bft) 0 min 7,7 km/h (2 Bft)
19.03.2010 18:08 18,2 C 16,6 C 0,0 UV-I 0,0 C 53 % 66 % 0 % 1014,6 hPa 0,0 l/m 8,4 km/h (2 Bft) 0 min 3,6 km/h (1 Bft)
19.03.2010 18:10 18,1 C 16,6 C 0,0 UV-I 0,0 C 53 % 66 % 0 % 1014,6 hPa 0,0 l/m 10,0 km/h (2 Bft) 0 min 15,2 km/h (3 Bft)
19.03.2010 18:12 18,1 C 16,7 C 0,0 UV-I 0,0 C 53 % 67 % 0 % 1014,7 hPa 0,0 l/m 10,4 km/h (2 Bft) 0 min 11,5 km/h (2 Bft)
19.03.2010 18:14 18,1 C 16,7 C 0,0 UV-I 0,0 C 53 % 66 % 0 % 1014,7 hPa 0,0 l/m 9,6 km/h (2 Bft) 0 min 6,5 km/h (2 Bft)
19.03.2010 18:16 18,1 C 16,7 C 0,0 UV-I 0,0 C 53 % 66 % 0 % 1014,7 hPa 0,0 l/m 9,2 km/h (2 Bft) 0 min 5,8 km/h (2 Bft)
19.03.2010 18:18 18,1 C 16,7 C 0,0 UV-I 0,0 C 53 % 66 % 0 % 1014,7 hPa 0,0 l/m 9,6 km/h (2 Bft) 0 min 6,7 km/h (2 Bft)
19.03.2010 18:20 18,1 C 16,6 C 0,0 UV-I 0,0 C 53 % 66 % 0 % 1014,7 hPa 0,0 l/m 10,0 km/h (2 Bft) 0 min 5,8 km/h (2 Bft)
19.03.2010 18:22 18,1 C 16,7 C 0,0 UV-I 0,0 C 53 % 66 % 0 % 1014,7 hPa 0,0 l/m 9,6 km/h (2 Bft) 0 min 9,1 km/h (2 Bft)
19.03.2010 18:24 18,1 C 16,6 C 0,0 UV-I 0,0 C 53 % 66 % 0 % 1014,7 hPa 0,0 l/m 8,4 km/h (2 Bft) 0 min 3,8 km/h (1 Bft)
19.03.2010 18:26 18,1 C 16,5 C 0,0 UV-I 0,0 C 53 % 66 % 0 % 1014,7 hPa 0,0 l/m 8,8 km/h (2 Bft) 0 min 6,7 km/h (2 Bft)
19.03.2010 18:28 18,1 C 16,5 C 0,0 UV-I 0,0 C 53 % 66 % 0 % 1014,7 hPa 0,0 l/m 8,8 km/h (2 Bft) 0 min 6,3 km/h (2 Bft)
19.03.2010 18:30 18,1 C 16,5 C 0,0 UV-I 0,0 C 53 % 66 % 0 % 1014,7 hPa 0,0 l/m 8,4 km/h (2 Bft) 0 min 3,4 km/h (1 Bft)
19.03.2010 18:32 18,1 C 16,5 C 0,0 UV-I 0,0 C 53 % 66 % 0 % 1015,1 hPa 0,0 l/m 8,0 km/h (2 Bft) 0 min 4,6 km/h (1 Bft)
19.03.2010 18:34 18,0 C 16,5 C 0,0 UV-I 0,0 C 53 % 67 % 0 % 1015,1 hPa 0,0 l/m 8,0 km/h (2 Bft) 0 min 6,5 km/h (2 Bft)
19.03.2010 18:36 18,0 C 16,4 C 0,0 UV-I 0,0 C 53 % 67 % 0 % 1015,1 hPa 0,0 l/m 7,2 km/h (2 Bft) 0 min 3,8 km/h (1 Bft)
19.03.2010 18:38 18,0 C 16,4 C 0,0 UV-I 0,0 C 53 % 67 % 0 % 1015,1 hPa 0,0 l/m 6,8 km/h (2 Bft) 0 min 6,5 km/h (2 Bft)
19.03.2010 18:40 18,0 C 16,5 C 0,0 UV-I 0,0 C 53 % 67 % 0 % 1015,1 hPa 0,0 l/m 6,0 km/h (2 Bft) 0 min 3,8 km/h (1 Bft)
19.03.2010 18:42 18,0 C 16,4 C 0,0 UV-I 0,0 C 53 % 67 % 0 % 1015,1 hPa 0,0 l/m 6,0 km/h (2 Bft) 0 min 3,4 km/h (1 Bft)
19.03.2010 18:44 18,0 C 16,4 C 0,0 UV-I 0,0 C 53 % 67 % 0 % 1015,1 hPa 0,0 l/m 6,0 km/h (2 Bft) 0 min 7,0 km/h (2 Bft)
19.03.2010 18:46 18,0 C 16,4 C 0,0 UV-I 0,0 C 53 % 67 % 0 % 1015,1 hPa 0,0 l/m 6,0 km/h (2 Bft) 0 min 3,8 km/h (1 Bft)
19.03.2010 18:48 18,0 C 16,3 C 0,0 UV-I 0,0 C 53 % 67 % 0 % 1015,1 hPa 0,0 l/m 6,4 km/h (2 Bft) 0 min 6,5 km/h (2 Bft)
19.03.2010 18:50 18,0 C 16,3 C 0,0 UV-I 0,0 C 53 % 67 % 0 % 1015,1 hPa 0,0 l/m 6,0 km/h (2 Bft) 0 min 6,7 km/h (2 Bft)
19.03.2010 18:52 18,0 C 16,3 C 0,0 UV-I 0,0 C 53 % 67 % 0 % 1014,7 hPa 0,0 l/m 6,4 km/h (2 Bft) 0 min 6,0 km/h (2 Bft)
19.03.2010 18:54 18,0 C 16,2 C 0,0 UV-I 0,0 C 53 % 67 % 0 % 1014,7 hPa 0,0 l/m 6,4 km/h (2 Bft) 0 min 4,3 km/h (1 Bft)
19.03.2010 18:56 18,0 C 16,3 C 0,0 UV-I 0,0 C 53 % 67 % 0 % 1014,7 hPa 0,0 l/m 6,4 km/h (2 Bft) 0 min 4,1 km/h (1 Bft)
19.03.2010 18:58 18,0 C 16,3 C 0,0 UV-I 0,0 C 53 % 67 % 0 % 1014,7 hPa 0,0 l/m 6,0 km/h (2 Bft) 0 min 2,6 km/h (1 Bft)
19.03.2010 19:00 17,9 C 16,3 C 0,0 UV-I 0,0 C 53 % 67 % 0 % 1014,7 hPa 0,0 l/m 5,6 km/h (1 Bft) 0 min 3,6 km/h (1 Bft)
19.03.2010 19:02 17,9 C 16,1 C 0,0 UV-I 0,0 C 53 % 67 % 0 % 1014,7 hPa 0,0 l/m 4,4 km/h (1 Bft) 0 min 0,0 km/h (0 Bft)
19.03.2010 19:04 18,0 C 16,1 C 0,0 UV-I 0,0 C 53 % 67 % 0 % 1014,7 hPa 0,0 l/m 4,0 km/h (1 Bft) 0 min 4,3 km/h (1 Bft)
19.03.2010 19:06 18,0 C 16,1 C 0,0 UV-I 0,0 C 53 % 67 % 0 % 1014,7 hPa 0,0 l/m 3,2 km/h (1 Bft) 0 min 4,8 km/h (1 Bft)
19.03.2010 19:08 17,9 C 16,1 C 0,0 UV-I 0,0 C 53 % 67 % 0 % 1014,7 hPa 0,0 l/m 2,8 km/h (1 Bft) 0 min 3,1 km/h (1 Bft)
19.03.2010 19:10 17,9 C 16,1 C 0,0 UV-I 0,0 C 53 % 67 % 0 % 1014,7 hPa 0,0 l/m 2,8 km/h (1 Bft) 0 min 3,4 km/h (1 Bft)
19.03.2010 19:12 17,9 C 16,0 C 0,0 UV-I 0,0 C 53 % 67 % 0 % 1014,7 hPa 0,0 l/m 3,2 km/h (1 Bft) 0 min 6,0 km/h (2 Bft)
19.03.2010 19:14 17,9 C 16,0 C 0,0 UV-I 0,0 C 53 % 67 % 0 % 1014,7 hPa 0,0 l/m 3,6 km/h (1 Bft) 0 min 2,6 km/h (1 Bft)
19.03.2010 19:16 17,9 C 16,1 C 0,0 UV-I 0,0 C 53 % 68 % 0 % 1014,7 hPa 0,0 l/m 3,2 km/h (1 Bft) 0 min 4,8 km/h (1 Bft)
19.03.2010 19:18 17,9 C 16,0 C 0,0 UV-I 0,0 C 53 % 68 % 0 % 1014,7 hPa 0,0 l/m 3,2 km/h (1 Bft) 0 min 0,0 km/h (0 Bft)
19.03.2010 19:20 17,9 C 16,0 C 0,0 UV-I 0,0 C 53 % 68 % 0 % 1014,7 hPa 0,0 l/m 2,8 km/h (1 Bft) 0 min 2,6 km/h (1 Bft)
19.03.2010 19:22 17,9 C 16,0 C 0,0 UV-I 0,0 C 53 % 68 % 0 % 1014,7 hPa 0,0 l/m 2,4 km/h (1 Bft) 0 min 3,1 km/h (1 Bft)
19.03.2010 19:24 17,9 C 15,9 C 0,0 UV-I 0,0 C 53 % 68 % 0 % 1014,7 hPa 0,0 l/m 2,0 km/h (1 Bft) 0 min 3,6 km/h (1 Bft)
19.03.2010 19:26 17,8 C 15,9 C 0,0 UV-I 0,0 C 53 % 68 % 0 % 1014,7 hPa 0,0 l/m 2,4 km/h (1 Bft) 0 min 0,0 km/h (0 Bft)
19.03.2010 19:28 17,9 C 15,9 C 0,0 UV-I 0,0 C 53 % 68 % 0 % 1014,7 hPa 0,0 l/m 2,8 km/h (1 Bft) 0 min 5,3 km/h (1 Bft)
19.03.2010 19:30 17,9 C 15,9 C 0,0 UV-I 0,0 C 53 % 68 % 0 % 1014,7 hPa 0,0 l/m 2,4 km/h (1 Bft) 0 min 5,5 km/h (1 Bft)
19.03.2010 19:32 17,8 C 15,9 C 0,0 UV-I 0,0 C 53 % 68 % 0 % 1014,5 hPa 0,0 l/m 2,4 km/h (1 Bft) 0 min 0,0 km/h (0 Bft)
19.03.2010 19:34 17,8 C 15,8 C 0,0 UV-I 0,0 C 53 % 68 % 0 % 1014,5 hPa 0,0 l/m 3,2 km/h (1 Bft) 0 min 5,1 km/h (1 Bft)
19.03.2010 19:36 17,8 C 15,8 C 0,0 UV-I 0,0 C 53 % 68 % 0 % 1014,5 hPa 0,0 l/m 2,8 km/h (1 Bft) 0 min 0,0 km/h (0 Bft)
19.03.2010 19:38 17,8 C 15,9 C 0,0 UV-I 0,0 C 53 % 68 % 0 % 1014,5 hPa 0,0 l/m 2,8 km/h (1 Bft) 0 min 3,4 km/h (1 Bft)
19.03.2010 19:40 17,8 C 15,9 C 0,0 UV-I 0,0 C 53 % 68 % 0 % 1014,5 hPa 0,0 l/m 2,8 km/h (1 Bft) 0 min 0,0 km/h (0 Bft)
19.03.2010 19:42 17,8 C 15,7 C 0,0 UV-I 0,0 C 53 % 68 % 0 % 1014,5 hPa 0,0 l/m 2,4 km/h (1 Bft) 0 min 2,9 km/h (1 Bft)
19.03.2010 19:44 17,8 C 15,8 C 0,0 UV-I 0,0 C 53 % 68 % 0 % 1014,5 hPa 0,0 l/m 2,4 km/h (1 Bft) 0 min 2,6 km/h (1 Bft)
19.03.2010 19:46 17,8 C 15,7 C 0,0 UV-I 0,0 C 53 % 68 % 0 % 1014,5 hPa 0,0 l/m 2,8 km/h (1 Bft) 0 min 2,9 km/h (1 Bft)
19.03.2010 19:48 17,8 C 15,7 C 0,0 UV-I 0,0 C 53 % 68 % 0 % 1014,5 hPa 0,0 l/m 3,2 km/h (1 Bft) 0 min 2,4 km/h (1 Bft)
19.03.2010 19:50 17,8 C 15,7 C 0,0 UV-I 0,0 C 53 % 68 % 0 % 1014,5 hPa 0,0 l/m 3,2 km/h (1 Bft) 0 min 0,0 km/h (0 Bft)
19.03.2010 19:52 17,8 C 15,7 C 0,0 UV-I 0,0 C 53 % 68 % 0 % 1014,4 hPa 0,0 l/m 2,8 km/h (1 Bft) 0 min 2,6 km/h (1 Bft)
19.03.2010 19:54 17,8 C 15,7 C 0,0 UV-I 0,0 C 53 % 68 % 0 % 1014,4 hPa 0,0 l/m 2,8 km/h (1 Bft) 0 min 3,4 km/h (1 Bft)
19.03.2010 19:56 17,8 C 15,7 C 0,0 UV-I 0,0 C 53 % 69 % 0 % 1014,4 hPa 0,0 l/m 2,0 km/h (1 Bft) 0 min 0,0 km/h (0 Bft)
19.03.2010 19:58 17,8 C 15,6 C 0,0 UV-I 0,0 C 53 % 69 % 0 % 1014,4 hPa 0,0 l/m 1,6 km/h (1 Bft) 0 min 2,6 km/h (1 Bft)
19.03.2010 20:00 17,8 C 15,7 C 0,0 UV-I 0,0 C 53 % 69 % 0 % 1014,4 hPa 0,0 l/m 1,6 km/h (1 Bft) 0 min 5,1 km/h (1 Bft)
19.03.2010 20:02 17,8 C 15,6 C 0,0 UV-I 0,0 C 53 % 69 % 0 % 1014,4 hPa 0,0 l/m 2,4 km/h (1 Bft) 0 min 3,4 km/h (1 Bft)
19.03.2010 20:04 17,8 C 15,6 C 0,0 UV-I 0,0 C 53 % 69 % 0 % 1014,4 hPa 0,0 l/m 2,8 km/h (1 Bft) 0 min 3,1 km/h (1 Bft)
19.03.2010 20:06 17,8 C 15,6 C 0,0 UV-I 0,0 C 53 % 69 % 0 % 1014,4 hPa 0,0 l/m 2,8 km/h (1 Bft) 0 min 0,0 km/h (0 Bft)
19.03.2010 20:08 17,8 C 15,6 C 0,0 UV-I 0,0 C 53 % 69 % 0 % 1014,4 hPa 0,0 l/m 4,0 km/h (1 Bft) 0 min 4,3 km/h (1 Bft)
19.03.2010 20:10 17,8 C 15,5 C 0,0 UV-I 0,0 C 53 % 69 % 0 % 1014,4 hPa 0,0 l/m 4,0 km/h (1 Bft) 0 min 2,9 km/h (1 Bft)
19.03.2010 20:12 17,8 C 15,5 C 0,0 UV-I 0,0 C 53 % 70 % 0 % 1014,3 hPa 0,0 l/m 2,8 km/h (1 Bft) 0 min 2,4 km/h (1 Bft)
19.03.2010 20:14 17,8 C 15,4 C 0,0 UV-I 0,0 C 53 % 70 % 0 % 1014,3 hPa 0,0 l/m 3,6 km/h (1 Bft) 0 min 4,6 km/h (1 Bft)
19.03.2010 20:18 17,8 C 15,5 C 0,0 UV-I 0,0 C 53 % 70 % 0 % 1014,3 hPa 0,0 l/m 3,2 km/h (1 Bft) 0 min 5,1 km/h (1 Bft)
19.03.2010 20:20 17,8 C 15,4 C 0,0 UV-I 0,0 C 53 % 70 % 0 % 1014,3 hPa 0,0 l/m 2,4 km/h (1 Bft) 0 min 0,0 km/h (0 Bft)
19.03.2010 20:22 17,8 C 15,3 C 0,0 UV-I 0,0 C 53 % 70 % 0 % 1014,3 hPa 0,0 l/m 2,4 km/h (1 Bft) 0 min 0,0 km/h (0 Bft)
19.03.2010 20:24 17,8 C 15,3 C 0,0 UV-I 0,0 C 53 % 70 % 0 % 1014,3 hPa 0,0 l/m 2,4 km/h (1 Bft) 0 min 3,1 km/h (1 Bft)
19.03.2010 20:26 17,7 C 15,3 C 0,0 UV-I 0,0 C 53 % 70 % 0 % 1014,3 hPa 0,0 l/m 2,0 km/h (1 Bft) 0 min 2,6 km/h (1 Bft)
19.03.2010 20:28 17,7 C 15,2 C 0,0 UV-I 0,0 C 53 % 71 % 0 % 1014,3 hPa 0,0 l/m 2,8 km/h (1 Bft) 0 min 4,3 km/h (1 Bft)
19.03.2010 20:30 17,8 C 15,2 C 0,0 UV-I 0,0 C 53 % 71 % 0 % 1014,3 hPa 0,0 l/m 3,2 km/h (1 Bft) 0 min 3,4 km/h (1 Bft)
19.03.2010 20:32 17,7 C 15,2 C 0,0 UV-I 0,0 C 53 % 71 % 0 % 1014,1 hPa 0,0 l/m 3,6 km/h (1 Bft) 0 min 6,0 km/h (2 Bft)
19.03.2010 20:34 17,7 C 15,2 C 0,0 UV-I 0,0 C 53 % 71 % 0 % 1014,1 hPa 0,0 l/m 5,2 km/h (1 Bft) 0 min 5,5 km/h (1 Bft)
19.03.2010 20:36 17,7 C 15,1 C 0,0 UV-I 0,0 C 53 % 71 % 0 % 1014,1 hPa 0,0 l/m 6,0 km/h (2 Bft) 0 min 5,3 km/h (1 Bft)
19.03.2010 20:38 17,7 C 15,1 C 0,0 UV-I 0,0 C 53 % 71 % 0 % 1014,1 hPa 0,0 l/m 6,4 km/h (2 Bft) 0 min 4,1 km/h (1 Bft)
19.03.2010 20:40 17,7 C 15,1 C 0,0 UV-I 0,0 C 53 % 71 % 0 % 1014,1 hPa 0,0 l/m 6,8 km/h (2 Bft) 0 min 5,8 km/h (2 Bft)
19.03.2010 20:42 17,7 C 15,0 C 0,0 UV-I 0,0 C 53 % 71 % 0 % 1014,1 hPa 0,0 l/m 7,2 km/h (2 Bft) 0 min 5,5 km/h (1 Bft)
19.03.2010 20:44 17,7 C 15,1 C 0,0 UV-I 0,0 C 53 % 71 % 0 % 1014,1 hPa 0,0 l/m 7,2 km/h (2 Bft) 0 min 3,1 km/h (1 Bft)
19.03.2010 20:46 17,7 C 15,1 C 0,0 UV-I 0,0 C 53 % 71 % 0 % 1014,1 hPa 0,0 l/m 5,6 km/h (1 Bft) 0 min 0,0 km/h (0 Bft)
19.03.2010 20:50 17,7 C 15,0 C 0,0 UV-I 0,0 C 53 % 72 % 0 % 1014,1 hPa 0,0 l/m 4,8 km/h (1 Bft) 0 min 7,0 km/h (2 Bft)
19.03.2010 20:52 17,7 C 15,0 C 0,0 UV-I 0,0 C 53 % 72 % 0 % 1013,5 hPa 0,0 l/m 4,0 km/h (1 Bft) 0 min 5,1 km/h (1 Bft)
19.03.2010 20:54 17,7 C 14,9 C 0,0 UV-I 0,0 C 53 % 72 % 0 % 1013,5 hPa 0,0 l/m 4,4 km/h (1 Bft) 0 min 3,6 km/h (1 Bft)
19.03.2010 20:56 17,7 C 14,9 C 0,0 UV-I 0,0 C 53 % 72 % 0 % 1013,5 hPa 0,0 l/m 4,8 km/h (1 Bft) 0 min 3,6 km/h (1 Bft)
19.03.2010 20:58 17,7 C 14,9 C 0,0 UV-I 0,0 C 53 % 72 % 0 % 1013,5 hPa 0,0 l/m 4,4 km/h (1 Bft) 0 min 0,0 km/h (0 Bft)
19.03.2010 21:00 17,7 C 14,8 C 0,0 UV-I 0,0 C 53 % 72 % 0 % 1013,5 hPa 0,0 l/m 4,4 km/h (1 Bft) 0 min 0,0 km/h (0 Bft)
19.03.2010 21:02 17,7 C 14,8 C 0,0 UV-I 0,0 C 53 % 72 % 0 % 1013,5 hPa 0,0 l/m 4,4 km/h (1 Bft) 0 min 0,0 km/h (0 Bft)
19.03.2010 21:06 17,7 C 14,8 C 0,0 UV-I 0,0 C 53 % 72 % 0 % 1013,5 hPa 0,0 l/m 3,2 km/h (1 Bft) 0 min 5,5 km/h (1 Bft)
19.03.2010 21:08 17,7 C 14,8 C 0,0 UV-I 0,0 C 53 % 72 % 0 % 1013,5 hPa 0,0 l/m 3,6 km/h (1 Bft) 0 min 3,1 km/h (1 Bft)
19.03.2010 21:10 17,7 C 14,8 C 0,0 UV-I 0,0 C 53 % 72 % 0 % 1013,5 hPa 0,0 l/m 4,0 km/h (1 Bft) 0 min 5,3 km/h (1 Bft)
19.03.2010 21:12 17,7 C 14,8 C 0,0 UV-I 0,0 C 53 % 72 % 0 % 1013,3 hPa 0,0 l/m 4,4 km/h (1 Bft) 0 min 4,6 km/h (1 Bft)
19.03.2010 21:14 17,7 C 14,7 C 0,0 UV-I 0,0 C 53 % 72 % 0 % 1013,3 hPa 0,0 l/m 4,0 km/h (1 Bft) 0 min 2,4 km/h (1 Bft)
19.03.2010 21:16 17,6 C 14,7 C 0,0 UV-I 0,0 C 53 % 72 % 0 % 1013,3 hPa 0,0 l/m 3,2 km/h (1 Bft) 0 min 0,0 km/h (0 Bft)
19.03.2010 21:18 17,7 C 14,7 C 0,0 UV-I 0,0 C 53 % 73 % 0 % 1013,3 hPa 0,0 l/m 2,8 km/h (1 Bft) 0 min 2,4 km/h (1 Bft)
19.03.2010 21:20 17,6 C 14,7 C 0,0 UV-I 0,0 C 53 % 73 % 0 % 1013,3 hPa 0,0 l/m 2,0 km/h (1 Bft) 0 min 0,0 km/h (0 Bft)
19.03.2010 21:22 17,6 C 14,6 C 0,0 UV-I 0,0 C 53 % 73 % 0 % 1013,3 hPa 0,0 l/m 1,2 km/h (1 Bft) 0 min 0,0 km/h (0 Bft)
19.03.2010 21:26 17,6 C 14,7 C 0,0 UV-I 0,0 C 53 % 73 % 0 % 1013,3 hPa 0,0 l/m 0,8 km/h (0 Bft) 0 min 0,0 km/h (0 Bft)
19.03.2010 21:28 17,6 C 14,7 C 0,0 UV-I 0,0 C 53 % 73 % 0 % 1013,3 hPa 0,0 l/m 1,2 km/h (1 Bft) 0 min 4,8 km/h (1 Bft)
19.03.2010 21:30 17,6 C 14,7 C 0,0 UV-I 0,0 C 53 % 73 % 0 % 1013,3 hPa 0,0 l/m 1,6 km/h (1 Bft) 0 min 4,6 km/h (1 Bft)
19.03.2010 21:32 17,6 C 14,6 C 0,0 UV-I 0,0 C 53 % 74 % 0 % 1013,1 hPa 0,0 l/m 1,6 km/h (1 Bft) 0 min 0,0 km/h (0 Bft)
19.03.2010 21:34 17,6 C 14,5 C 0,0 UV-I 0,0 C 53 % 74 % 0 % 1013,1 hPa 0,0 l/m 1,6 km/h (1 Bft) 0 min 0,0 km/h (0 Bft)
19.03.2010 21:36 17,6 C 14,5 C 0,0 UV-I 0,0 C 53 % 74 % 0 % 1013,1 hPa 0,0 l/m 1,2 km/h (1 Bft) 0 min 0,0 km/h (0 Bft)
19.03.2010 21:38 17,7 C 14,5 C 0,0 UV-I 0,0 C 53 % 74 % 0 % 1013,1 hPa 0,0 l/m 1,6 km/h (1 Bft) 0 min 0,0 km/h (0 Bft)
19.03.2010 21:40 17,6 C 14,5 C 0,0 UV-I 0,0 C 53 % 74 % 0 % 1013,1 hPa 0,0 l/m 0,8 km/h (0 Bft) 0 min 0,0 km/h (0 Bft)
19.03.2010 21:42 17,6 C 14,5 C 0,0 UV-I 0,0 C 53 % 74 % 0 % 1013,1 hPa 0,0 l/m 0,4 km/h (0 Bft) 0 min 0,0 km/h (0 Bft)
19.03.2010 21:43 17,6 C 14,4 C 0,0 UV-I 0,0 C 53 % 74 % 0 % 1013,1 hPa 0,0 l/m 0,8 km/h (0 Bft) 0 min 0,0 km/h (0 Bft)
19.03.2010 21:48 17,6 C 14,4 C 0,0 UV-I 0,0 C 54 % 74 % 0 % 1013,1 hPa 0,0 l/m 2,0 km/h (1 Bft) 0 min 3,6 km/h (1 Bft)
19.03.2010 21:57 17,6 C 14,5 C 0,0 UV-I 0,0 C 54 % 73 % 0 % 1012,8 hPa 0,0 l/m 5,6 km/h (1 Bft) 0 min 3,8 km/h (1 Bft)
19.03.2010 21:58 17,6 C 14,5 C 0,0 UV-I 0,0 C 54 % 73 % 0 % 1012,8 hPa 0,0 l/m 5,6 km/h (1 Bft) 0 min 3,8 km/h (1 Bft)
19.03.2010 22:00 17,6 C 14,5 C 0,0 UV-I 0,0 C 54 % 73 % 0 % 1012,8 hPa 0,0 l/m 5,2 km/h (1 Bft) 0 min 3,1 km/h (1 Bft)
19.03.2010 22:02 17,6 C 14,5 C 0,0 UV-I 0,0 C 54 % 73 % 0 % 1012,8 hPa 0,0 l/m 6,0 km/h (2 Bft) 0 min 6,7 km/h (2 Bft)
19.03.2010 22:04 17,6 C 14,5 C 0,0 UV-I 0,0 C 54 % 72 % 0 % 1012,8 hPa 0,0 l/m 6,0 km/h (2 Bft) 0 min 4,3 km/h (1 Bft)
19.03.2010 22:07 17,6 C 14,5 C 0,0 UV-I 0,0 C 54 % 72 % 0 % 1012,8 hPa 0,0 l/m 5,6 km/h (1 Bft) 0 min 9,4 km/h (2 Bft)
19.03.2010 22:08 17,6 C 14,5 C 0,0 UV-I 0,0 C 54 % 72 % 0 % 1012,8 hPa 0,0 l/m 5,6 km/h (1 Bft) 0 min 9,4 km/h (2 Bft)
19.03.2010 22:10 17,6 C 14,5 C 0,0 UV-I 0,0 C 54 % 72 % 0 % 1012,8 hPa 0,0 l/m 6,0 km/h (2 Bft) 0 min 4,1 km/h (1 Bft)
19.03.2010 22:12 17,6 C 14,5 C 0,0 UV-I 0,0 C 54 % 72 % 0 % 1012,8 hPa 0,0 l/m 5,6 km/h (1 Bft) 0 min 4,8 km/h (1 Bft)
19.03.2010 22:14 17,6 C 14,5 C 0,0 UV-I 0,0 C 54 % 72 % 0 % 1012,8 hPa 0,0 l/m 6,0 km/h (2 Bft) 0 min 6,3 km/h (2 Bft)
19.03.2010 22:16 17,6 C 14,5 C 0,0 UV-I 0,0 C 54 % 72 % 0 % 1012,8 hPa 0,0 l/m 6,0 km/h (2 Bft) 0 min 5,3 km/h (1 Bft)
19.03.2010 22:18 17,6 C 14,4 C 0,0 UV-I 0,0 C 54 % 72 % 0 % 1012,8 hPa 0,0 l/m 6,4 km/h (2 Bft) 0 min 2,4 km/h (1 Bft)
19.03.2010 22:20 17,6 C 14,5 C 0,0 UV-I 0,0 C 54 % 72 % 0 % 1012,8 hPa 0,0 l/m 5,2 km/h (1 Bft) 0 min 2,9 km/h (1 Bft)
19.03.2010 22:22 17,6 C 14,4 C 0,0 UV-I 0,0 C 54 % 72 % 0 % 1012,8 hPa 0,0 l/m 5,2 km/h (1 Bft) 0 min 3,1 km/h (1 Bft)
19.03.2010 22:24 17,6 C 14,4 C 0,0 UV-I 0,0 C 54 % 72 % 0 % 1012,8 hPa 0,0 l/m 4,4 km/h (1 Bft) 0 min 0,0 km/h (0 Bft)
19.03.2010 22:26 17,6 C 14,4 C 0,0 UV-I 0,0 C 54 % 72 % 0 % 1012,8 hPa 0,0 l/m 3,6 km/h (1 Bft) 0 min 3,4 km/h (1 Bft)
19.03.2010 22:28 17,6 C 14,4 C 0,0 UV-I 0,0 C 54 % 72 % 0 % 1012,8 hPa 0,0 l/m 2,0 km/h (1 Bft) 0 min 0,0 km/h (0 Bft)
19.03.2010 22:30 17,6 C 14,4 C 0,0 UV-I 0,0 C 54 % 72 % 0 % 1012,8 hPa 0,0 l/m 2,0 km/h (1 Bft) 0 min 2,6 km/h (1 Bft)
19.03.2010 22:32 17,6 C 14,3 C 0,0 UV-I 0,0 C 54 % 72 % 0 % 1012,5 hPa 0,0 l/m 2,4 km/h (1 Bft) 0 min 3,8 km/h (1 Bft)
19.03.2010 22:34 17,6 C 14,3 C 0,0 UV-I 0,0 C 54 % 72 % 0 % 1012,5 hPa 0,0 l/m 2,4 km/h (1 Bft) 0 min 3,1 km/h (1 Bft)
19.03.2010 22:36 17,6 C 14,3 C 0,0 UV-I 0,0 C 54 % 72 % 0 % 1012,5 hPa 0,0 l/m 3,2 km/h (1 Bft) 0 min 3,1 km/h (1 Bft)
19.03.2010 22:38 17,6 C 14,3 C 0,0 UV-I 0,0 C 54 % 72 % 0 % 1012,5 hPa 0,0 l/m 2,8 km/h (1 Bft) 0 min 2,4 km/h (1 Bft)
19.03.2010 22:40 17,6 C 14,3 C 0,0 UV-I 0,0 C 54 % 72 % 0 % 1012,5 hPa 0,0 l/m 3,6 km/h (1 Bft) 0 min 5,1 km/h (1 Bft)
19.03.2010 22:42 17,6 C 14,3 C 0,0 UV-I 0,0 C 54 % 72 % 0 % 1012,5 hPa 0,0 l/m 3,2 km/h (1 Bft) 0 min 0,0 km/h (0 Bft)
19.03.2010 22:44 17,6 C 14,3 C 0,0 UV-I 0,0 C 54 % 72 % 0 % 1012,5 hPa 0,0 l/m 3,2 km/h (1 Bft) 0 min 5,3 km/h (1 Bft)
19.03.2010 22:46 17,6 C 14,3 C 0,0 UV-I 0,0 C 54 % 72 % 0 % 1012,5 hPa 0,0 l/m 3,2 km/h (1 Bft) 0 min 3,1 km/h (1 Bft)
19.03.2010 22:48 17,6 C 14,3 C 0,0 UV-I 0,0 C 54 % 72 % 0 % 1012,5 hPa 0,0 l/m 3,6 km/h (1 Bft) 0 min 4,1 km/h (1 Bft)
19.03.2010 22:50 17,6 C 14,2 C 0,0 UV-I 0,1 C 54 % 72 % 0 % 1012,5 hPa 0,0 l/m 3,2 km/h (1 Bft) 0 min 0,0 km/h (0 Bft)
19.03.2010 22:52 17,6 C 14,2 C 0,0 UV-I 0,1 C 54 % 72 % 0 % 1012,4 hPa 0,0 l/m 2,8 km/h (1 Bft) 0 min 4,1 km/h (1 Bft)
19.03.2010 22:54 17,6 C 14,2 C 0,0 UV-I 0,0 C 54 % 72 % 0 % 1012,4 hPa 0,0 l/m 2,8 km/h (1 Bft) 0 min 3,1 km/h (1 Bft)
19.03.2010 22:56 17,6 C 14,2 C 0,0 UV-I 0,0 C 54 % 72 % 0 % 1012,4 hPa 0,0 l/m 2,8 km/h (1 Bft) 0 min 2,4 km/h (1 Bft)
19.03.2010 22:58 17,6 C 14,3 C 0,0 UV-I 0,0 C 54 % 72 % 0 % 1012,4 hPa 0,0 l/m 2,4 km/h (1 Bft) 0 min 9,6 km/h (2 Bft)
19.03.2010 23:00 17,6 C 14,3 C 0,0 UV-I 0,0 C 54 % 72 % 0 % 1012,4 hPa 0,0 l/m 3,6 km/h (1 Bft) 0 min 7,0 km/h (2 Bft)
19.03.2010 23:02 17,6 C 14,3 C 0,0 UV-I 0,0 C 54 % 72 % 0 % 1012,4 hPa 0,0 l/m 5,6 km/h (1 Bft) 0 min 7,7 km/h (2 Bft)
19.03.2010 23:04 17,6 C 14,3 C 0,0 UV-I 0,0 C 54 % 72 % 0 % 1012,4 hPa 0,0 l/m 6,8 km/h (2 Bft) 0 min 5,3 km/h (1 Bft)
19.03.2010 23:06 17,6 C 14,3 C 0,0 UV-I 0,0 C 54 % 73 % 0 % 1012,4 hPa 0,0 l/m 7,2 km/h (2 Bft) 0 min 6,0 km/h (2 Bft)
19.03.2010 23:08 17,6 C 14,3 C 0,0 UV-I 0,0 C 54 % 73 % 0 % 1012,4 hPa 0,0 l/m 8,8 km/h (2 Bft) 0 min 4,8 km/h (1 Bft)
19.03.2010 23:10 17,6 C 14,3 C 0,0 UV-I 0,0 C 54 % 73 % 0 % 1012,4 hPa 0,0 l/m 9,2 km/h (2 Bft) 0 min 6,7 km/h (2 Bft)
19.03.2010 23:12 17,6 C 14,3 C 0,0 UV-I 0,0 C 54 % 74 % 0 % 1012,4 hPa 0,0 l/m 10,0 km/h (2 Bft) 0 min 6,7 km/h (2 Bft)
19.03.2010 23:14 17,6 C 14,2 C 0,0 UV-I 0,0 C 54 % 74 % 0 % 1012,4 hPa 0,0 l/m 9,6 km/h (2 Bft) 0 min 7,2 km/h (2 Bft)
19.03.2010 23:16 17,6 C 14,1 C 0,0 UV-I 0,0 C 54 % 74 % 0 % 1012,4 hPa 0,0 l/m 9,6 km/h (2 Bft) 0 min 6,3 km/h (2 Bft)
19.03.2010 23:18 17,6 C 14,1 C 0,0 UV-I 0,0 C 54 % 74 % 0 % 1012,4 hPa 0,0 l/m 8,0 km/h (2 Bft) 0 min 2,4 km/h (1 Bft)
19.03.2010 23:20 17,6 C 14,1 C 0,0 UV-I 0,0 C 54 % 74 % 0 % 1012,4 hPa 0,0 l/m 6,4 km/h (2 Bft) 0 min 0,0 km/h (0 Bft)
19.03.2010 23:22 17,6 C 14,0 C 0,0 UV-I 0,0 C 54 % 74 % 0 % 1012,4 hPa 0,0 l/m 4,4 km/h (1 Bft) 0 min 0,0 km/h (0 Bft)
19.03.2010 23:24 17,6 C 14,0 C 0,0 UV-I 0,0 C 54 % 75 % 0 % 1012,4 hPa 0,0 l/m 2,4 km/h (1 Bft) 0 min 0,0 km/h (0 Bft)
19.03.2010 23:26 17,6 C 14,0 C 0,0 UV-I 0,0 C 54 % 75 % 0 % 1012,4 hPa 0,0 l/m 1,2 km/h (1 Bft) 0 min 2,4 km/h (1 Bft)
19.03.2010 23:28 17,6 C 14,0 C 0,0 UV-I 0,0 C 54 % 75 % 0 % 1012,4 hPa 0,0 l/m 0,4 km/h (0 Bft) 0 min 2,4 km/h (1 Bft)
19.03.2010 23:30 17,6 C 14,0 C 0,0 UV-I 0,0 C 54 % 76 % 0 % 1012,4 hPa 0,0 l/m 0,4 km/h (0 Bft) 0 min 0,0 km/h (0 Bft)
19.03.2010 23:32 17,6 C 14,0 C 0,0 UV-I 0,0 C 54 % 76 % 0 % 1012,4 hPa 0,0 l/m 0,4 km/h (0 Bft) 0 min 0,0 km/h (0 Bft)
19.03.2010 23:34 17,6 C 13,9 C 0,0 UV-I 0,0 C 54 % 76 % 0 % 1012,4 hPa 0,0 l/m 0,4 km/h (0 Bft) 0 min 0,0 km/h (0 Bft)
19.03.2010 23:36 17,6 C 13,9 C 0,0 UV-I 0,0 C 54 % 76 % 0 % 1012,4 hPa 0,0 l/m 0,4 km/h (0 Bft) 0 min 0,0 km/h (0 Bft)
19.03.2010 23:38 17,6 C 13,9 C 0,0 UV-I 0,0 C 54 % 77 % 0 % 1012,4 hPa 0,0 l/m 0,4 km/h (0 Bft) 0 min 0,0 km/h (0 Bft)
19.03.2010 23:40 17,6 C 13,9 C 0,0 UV-I 0,0 C 54 % 77 % 0 % 1012,4 hPa 0,0 l/m 0,0 km/h (0 Bft) 0 min 0,0 km/h (0 Bft)
19.03.2010 23:42 17,6 C 13,9 C 0,0 UV-I 0,0 C 54 % 77 % 0 % 1012,4 hPa 0,0 l/m 0,0 km/h (0 Bft) 0 min 0,0 km/h (0 Bft)
19.03.2010 23:44 17,6 C 13,9 C 0,0 UV-I 0,0 C 54 % 77 % 0 % 1012,4 hPa 0,0 l/m 0,0 km/h (0 Bft) 0 min 0,0 km/h (0 Bft)
19.03.2010 23:46 17,6 C 13,8 C 0,0 UV-I 0,0 C 54 % 77 % 0 % 1012,4 hPa 0,0 l/m 0,0 km/h (0 Bft) 0 min 0,0 km/h (0 Bft)
19.03.2010 23:48 17,6 C 13,7 C 0,0 UV-I 0,0 C 54 % 77 % 0 % 1012,4 hPa 0,0 l/m 0,0 km/h (0 Bft) 0 min 0,0 km/h (0 Bft)
19.03.2010 23:50 17,6 C 13,7 C 0,0 UV-I 0,0 C 54 % 78 % 0 % 1012,4 hPa 0,0 l/m 0,0 km/h (0 Bft) 0 min 0,0 km/h (0 Bft)
19.03.2010 23:52 17,6 C 13,6 C 0,0 UV-I 0,0 C 54 % 78 % 0 % 1012,1 hPa 0,0 l/m 0,0 km/h (0 Bft) 0 min 0,0 km/h (0 Bft)
19.03.2010 23:54 17,6 C 13,6 C 0,0 UV-I 0,0 C 54 % 78 % 0 % 1012,1 hPa 0,0 l/m 0,0 km/h (0 Bft) 0 min 0,0 km/h (0 Bft)
19.03.2010 23:56 17,6 C 13,6 C 0,0 UV-I 0,0 C 54 % 77 % 0 % 1012,1 hPa 0,0 l/m 0,0 km/h (0 Bft) 0 min 0,0 km/h (0 Bft)
19.03.2010 23:58 17,6 C 13,6 C 0,0 UV-I 0,0 C 54 % 77 % 0 % 1012,1 hPa 0,0 l/m 0,0 km/h (0 Bft) 0 min 0,0 km/h (0 Bft)
_ Min-Zeit 00:40 01:34 00:02 00:02 03:44 03:42 00:02 23:52 - 01:06 - 00:08
Minimum _ 16,4 C 9,8 C 0,0 UV-I 0,0 C 43 % 50 % 0 % 1012,1 hPa - 0,0 km/h (0 Bft) - 0,0 km/h (0 Bft)
_ Max-Zeit 15:08 14:48 12:28 12:08 21:48 23:50 11:53 13:53 00:02 12:03 11:50 17:48
Maximum _ 19,1 C 18,9 C 11,0 UV-I 5,5 C 54 % 78 % 100 % 1018,9 hPa 0,0 l/m 16,9 km/h
W (3 Bft)
2 min 24,3 km/h
N-NW (4 Bft)
Durchschnitt _ 17,3 C 14,5 C 1,0 UV-I 0,7 C 49 % 63 % 16 % 1015,8 hPa #0,0 l/m 7,8 km/h (2 Bft) #1:00 h 6,8 km/h (2 Bft)
© 2012 W. Hausmann